GFSMA_850_spd_003.txt.gz
Wind_Speed
14 14 15 15 14 15 14 15 15 16 18 20 21 23 24 24 26 27 27 28 28 27 26 26 27 26 25 24 23 23 23 22 23 23 23 21 22 21 21 19 19 18 18
17 18 18 18 18 18 17 18 19 18 19 21 22 23 26 28 28 30 31 32 32 32 32 31 31 31 31 30 29 28 28 28 27 27 27 25 25 25 24 23 21 20 20
20 20 21 22 22 21 21 21 22 23 23 23 26 26 27 29 30 32 33 35 37 37 37 37 37 36 36 35 35 34 33 32 32 30 31 30 29 28 26 25 24 23 23
23 24 24 24 25 25 25 25 25 27 28 28 29 29 29 30 32 34 36 37 38 40 41 43 42 42 42 41 39 38 36 36 35 35 34 34 32 31 29 28 26 25 24
26 28 29 29 30 30 31 30 30 31 31 31 31 31 32 34 36 37 39 40 42 42 43 44 44 44 44 44 43 42 39 39 38 39 38 36 35 32 31 29 28 26 26
32 33 34 34 35 34 36 35 35 34 34 35 32 34 34 34 36 38 40 40 41 42 44 45 45 46 47 46 46 45 44 43 42 41 41 39 36 34 32 30 28 27 28
37 37 37 38 39 38 38 39 38 38 39 38 34 38 37 38 41 42 42 42 43 43 44 45 46 48 49 48 47 46 45 43 40 41 40 39 36 32 31 30 29 28 29
35 36 36 38 39 40 40 41 41 41 43 41 39 37 32 37 43 41 38 39 42 41 43 41 42 44 44 43 42 41 40 37 38 36 34 32 29 29 30 31 30 29 27
32 32 32 33 35 37 40 42 42 42 44 43 41 32 14 18 22 27 22 24 25 30 32 32 33 33 34 37 37 35 34 32 33 32 30 30 27 29 31 32 30 29 27
29 29 30 31 30 32 35 38 42 42 41 44 42 45 45 43 28 26 31 25 24 31 36 36 34 34 35 37 35 33 33 32 31 31 30 31 30 32 33 32 30 28 25
21 24 26 27 30 30 32 33 36 38 40 42 44 44 42 44 49 45 37 45 38 41 40 39 41 43 41 38 36 36 34 35 31 33 34 33 33 34 33 32 29 26 32
16 15 17 21 25 31 32 31 31 32 38 42 45 45 46 37 39 39 40 40 42 47 42 42 42 43 45 44 42 38 33 36 35 33 36 36 35 34 34 32 28 32 31
18 17 16 18 21 24 28 31 34 33 33 37 42 48 49 51 51 48 45 46 42 41 38 41 42 41 42 44 43 41 38 35 38 37 38 37 36 36 36 34 35 32 33
17 17 16 15 16 20 23 26 29 33 36 38 40 41 45 49 50 51 46 43 42 41 38 43 42 42 39 38 39 36 36 35 35 38 38 37 37 37 38 38 35 34 34
23 24 24 24 24 22 19 20 24 28 32 36 38 41 43 45 47 48 49 48 43 37 40 40 40 42 44 39 38 40 38 37 36 38 39 37 38 41 41 38 36 35 34
24 25 26 26 26 26 27 28 29 29 29 31 34 38 39 42 44 46 46 47 49 48 45 43 50 48 44 40 38 40 42 41 40 41 41 41 40 43 42 39 38 35 35
29 31 31 32 31 31 30 29 29 30 32 32 32 32 32 32 36 41 44 47 47 48 49 57 51 49 41 42 42 39 44 44 46 41 43 45 44 46 46 43 40 36 34
37 38 37 35 35 35 33 32 31 31 32 31 29 29 31 34 37 38 40 43 45 48 48 49 51 47 48 50 48 45 44 44 48 42 40 43 49 48 45 43 39 35 32
38 38 37 37 38 36 34 33 32 31 34 37 35 34 34 34 37 40 40 41 41 45 47 50 55 51 50 48 47 49 48 48 46 50 48 39 48 48 46 44 38 34 29
33 33 34 36 36 36 37 34 33 38 36 34 34 34 35 35 35 37 38 39 40 42 45 46 48 49 48 50 51 51 51 53 49 51 48 45 48 48 49 41 37 27 27
31 32 34 32 33 34 34 38 36 35 35 33 36 39 40 38 36 35 35 37 38 39 41 42 42 42 43 35 45 42 53 54 51 52 52 51 48 48 44 39 30 28 28
32 33 29 31 31 30 35 30 27 32 33 36 40 42 39 39 37 32 34 36 36 39 42 42 41 41 45 47 34 42 48 44 41 55 49 49 49 43 41 34 24 25 27
35 32 30 35 31 34 29 27 26 28 34 37 37 37 34 33 38 35 39 35 36 40 40 40 41 42 43 44 42 40 40 50 49 47 34 44 43 40 36 25 21 26 28
34 34 36 33 35 35 27 29 25 30 35 36 36 33 35 40 36 36 34 39 40 40 41 37 39 43 42 42 39 42 44 43 45 38 35 36 36 34 27 25 25 27 24
34 35 33 35 33 32 29 24 30 34 41 40 33 36 40 39 38 40 36 41 45 45 43 40 41 42 42 39 36 46 33 42 38 33 34 29 29 27 22 21 23 22 22
35 33 32 32 29 30 31 35 37 43 40 37 36 43 42 40 42 41 43 46 50 47 43 43 42 41 45 40 35 37 36 44 38 28 34 31 27 21 12 21 23 20 20

GFSMA_850_spd_006.txt.gz
Wind_Speed
13 13 14 15 16 16 18 18 18 18 19 19 21 23 24 26 27 28 30 31 32 31 31 31 31 31 31 29 29 28 28 27 27 26 25 25 24 25 25 24 24 23 21
16 16 17 18 19 19 19 20 20 21 22 22 23 24 27 28 29 31 32 34 36 37 36 36 36 35 35 34 34 34 34 32 31 31 30 29 28 27 28 27 26 25 23
20 20 21 23 24 25 25 26 26 26 27 27 28 27 28 29 31 32 34 36 38 39 41 41 41 41 40 39 37 38 38 38 36 36 35 34 33 31 30 30 28 27 26
26 26 29 30 30 30 30 31 31 31 32 32 33 32 32 33 33 35 37 38 40 41 43 45 46 46 46 46 43 41 40 40 40 41 40 38 37 36 35 33 33 31 29
29 30 32 33 34 35 35 36 37 36 37 38 37 37 36 37 37 38 41 41 42 43 44 45 46 47 48 48 47 44 42 42 42 43 43 43 41 40 39 37 35 34 32
31 32 33 35 36 37 38 39 39 40 41 42 43 42 41 41 40 42 45 44 45 46 46 47 47 47 47 47 48 48 48 47 46 45 46 45 45 44 42 40 38 36 33
30 32 34 34 34 36 37 37 38 39 41 42 43 46 47 46 47 47 48 48 48 48 47 46 45 45 46 46 45 47 48 47 46 47 47 47 48 47 46 44 41 39 35
27 28 29 30 30 31 32 33 34 37 39 39 41 39 31 38 45 44 38 30 31 32 37 38 40 40 42 43 43 43 43 44 43 44 45 46 46 47 47 45 43 39 36
25 25 26 27 28 31 31 31 32 34 37 36 38 36 17 19 30 34 32 29 36 38 34 31 34 35 36 36 37 38 38 37 38 40 41 41 44 44 42 41 41 39 37
23 23 22 23 24 26 29 29 31 33 35 38 35 39 44 45 30 31 39 37 34 42 44 42 42 42 42 40 40 38 35 35 36 36 37 39 38 38 38 38 38 38 37
12 13 15 17 18 19 24 27 31 35 37 39 39 40 42 44 46 44 35 44 42 42 45 44 47 46 45 42 41 43 42 39 38 36 37 40 38 38 38 38 40 39 39
12 12 13 16 18 19 20 22 26 29 31 35 38 41 41 35 35 36 38 40 42 50 49 48 48 49 47 46 40 38 42 45 44 41 39 40 39 39 40 40 40 39 39
20 21 21 20 20 19 20 20 22 25 29 33 35 36 39 42 42 42 44 43 40 42 46 49 55 53 51 50 45 39 36 36 40 42 43 42 45 42 42 43 42 40 38
22 23 24 24 25 25 27 28 28 28 28 29 31 33 34 36 38 40 42 41 40 43 41 42 44 51 50 47 48 43 40 36 34 36 42 46 46 46 45 44 43 44 40
23 25 26 28 29 29 28 28 29 30 31 33 35 35 34 34 33 33 36 39 39 44 44 41 40 43 49 50 50 48 45 38 38 34 40 45 47 48 46 47 45 44 44
28 32 34 35 34 32 31 31 31 31 31 30 29 29 30 31 31 32 34 35 37 40 46 41 42 42 44 49 53 52 49 44 43 39 37 45 46 48 49 47 46 46 50
34 37 37 36 35 35 34 33 31 31 30 29 29 34 34 33 35 36 37 39 41 40 40 52 41 43 45 48 49 52 50 49 49 47 40 41 43 48 47 49 49 49 51
34 34 34 35 36 36 34 33 33 28 31 37 38 35 32 30 31 34 37 39 41 42 41 44 49 42 42 44 50 53 53 54 54 50 45 46 44 47 51 54 53 51 51
31 32 32 33 33 33 34 34 29 33 37 36 32 27 30 33 38 39 37 37 40 42 43 40 47 44 41 42 43 47 50 53 50 53 48 50 48 47 53 53 58 54 54
32 33 33 33 32 33 33 32 35 36 38 34 29 30 35 36 37 35 34 34 35 37 38 39 40 41 40 39 36 40 43 45 50 54 51 53 50 50 54 56 49 58 52
31 32 34 34 33 33 33 33 36 39 38 34 34 36 38 37 35 26 33 36 35 40 42 39 40 40 40 36 38 40 44 44 45 39 40 45 50 55 48 51 48 47 48
30 31 32 33 35 35 32 33 35 38 31 32 38 40 39 40 34 35 35 33 33 33 36 38 41 39 41 42 41 41 40 41 35 44 39 51 56 52 48 51 52 49 48
32 33 33 33 33 33 32 30 33 28 35 37 40 44 43 38 37 40 39 39 41 36 33 37 40 41 40 40 38 41 39 40 44 44 34 41 45 47 46 48 50 43 36
34 34 34 33 34 33 28 29 29 41 45 45 41 45 38 37 42 38 41 45 45 44 43 40 40 44 43 43 38 43 47 43 47 51 41 40 39 41 44 43 47 38 33
35 35 33 33 31 28 28 32 38 42 41 40 38 34 32 38 38 36 40 44 44 50 45 43 43 45 43 42 39 40 42 38 37 39 37 38 39 37 35 36 36 36 34
35 34 35 31 29 27 33 34 33 35 37 37 37 38 36 36 39 40 40 40 45 46 48 50 50 45 40 36 35 39 36 33 34 33 37 39 28 29 18 28 33 32 27

GFSMA_850_spd_009.txt.gz
Wind_Speed
15 16 17 18 18 19 19 20 21 22 22 22 22 24 24 25 28 29 31 31 33 36 36 36 33 32 33 33 33 33 33 32 31 30 29 28 28 27 26 27 27 26 26
19 20 22 23 23 23 23 25 26 27 28 27 27 26 28 28 29 31 33 34 35 37 39 39 39 36 35 36 36 37 37 37 36 35 34 33 33 31 31 30 30 30 29
22 22 24 26 27 28 29 30 31 32 33 33 34 32 31 32 33 34 34 36 37 38 41 42 43 43 42 41 39 40 41 41 40 40 39 38 38 37 36 35 34 33 31
24 26 27 29 30 31 32 33 34 36 38 38 38 38 38 37 37 37 37 38 40 40 40 42 45 46 47 47 43 43 43 44 44 44 44 43 42 42 41 40 39 38 36
26 27 29 30 31 32 34 35 36 37 39 41 41 41 41 41 41 41 42 42 43 43 43 44 45 46 47 49 49 47 48 48 48 48 47 47 47 46 45 43 42 41 40
26 28 29 30 30 32 33 34 35 35 37 38 40 42 43 44 44 43 43 45 46 46 45 46 47 48 47 48 49 50 51 52 51 51 51 51 50 50 49 48 47 45 44
26 28 30 29 28 30 30 32 34 35 35 34 37 38 39 41 42 43 41 40 40 39 37 36 37 40 44 46 46 46 46 48 49 49 50 52 52 52 51 50 50 49 47
24 26 26 27 28 30 30 30 32 35 36 30 35 34 28 32 35 36 36 36 35 32 31 33 36 36 32 33 35 35 38 40 42 46 49 50 50 52 51 51 52 51 49
17 18 20 21 22 24 27 27 28 30 35 34 37 35 20 19 30 36 39 40 41 40 39 40 39 39 38 37 37 37 38 38 37 38 40 45 46 48 50 50 51 52 50
11 12 14 16 17 19 21 21 22 25 29 34 33 36 38 40 28 31 32 33 40 42 46 46 44 42 42 44 43 39 38 38 39 39 40 40 42 43 44 46 47 48 47
11 13 14 16 18 19 20 21 23 23 25 30 33 37 37 39 42 41 36 32 34 41 45 45 44 46 46 44 45 45 41 36 33 39 42 41 41 40 41 42 44 43 44
19 20 21 21 22 23 24 24 24 25 26 27 28 29 30 32 33 33 33 35 35 37 44 47 46 46 46 46 47 46 44 39 36 33 37 43 44 43 42 42 44 43 43
25 26 26 26 27 27 29 30 30 29 28 29 29 30 32 33 33 35 35 40 37 41 37 42 42 44 46 47 47 46 48 45 40 41 35 39 43 46 46 45 44 43 44
24 26 28 29 30 31 32 31 32 32 32 32 32 31 31 30 29 29 31 35 38 38 35 35 34 38 41 45 50 49 47 47 49 47 43 39 41 42 46 48 47 48 45
29 31 33 34 35 36 35 34 34 33 32 32 31 30 29 32 33 31 31 30 32 38 40 38 35 35 37 39 43 46 50 49 48 46 46 41 40 43 45 47 48 49 49
32 33 34 34 34 34 34 33 33 33 31 29 30 34 35 34 33 32 31 33 34 35 38 41 38 37 39 41 44 44 45 49 52 52 50 48 43 43 44 47 46 48 50
31 32 33 34 34 34 34 33 33 31 27 31 36 36 34 29 27 30 33 36 39 36 35 51 43 40 39 38 40 41 43 44 45 48 50 49 47 45 44 45 44 43 48
32 33 33 33 34 34 33 33 33 30 34 38 37 34 29 29 31 33 34 37 37 36 34 37 49 46 38 38 41 41 40 41 41 42 44 46 48 48 50 49 47 46 47
30 30 31 33 34 34 34 33 31 34 37 39 37 30 28 32 31 35 34 30 30 37 38 36 40 43 47 42 40 43 41 41 39 38 39 41 44 49 50 45 48 50 48
29 31 32 33 35 36 36 35 35 35 37 37 30 27 31 31 34 37 33 31 38 40 36 35 35 40 41 43 38 38 38 35 36 40 38 42 40 43 43 38 44 55 52
30 31 33 34 34 34 34 35 35 35 35 36 36 38 39 40 41 37 30 39 41 38 35 38 36 36 40 40 37 39 41 40 43 37 42 38 42 41 43 45 37 41 55
31 33 34 35 36 35 34 32 31 30 36 41 46 47 45 47 44 36 38 39 34 32 36 36 37 38 44 40 41 39 42 44 46 37 30 34 36 44 43 46 42 39 43
35 36 36 36 36 36 34 31 30 33 41 44 43 44 44 39 36 35 39 38 40 38 35 36 38 39 44 43 44 44 40 40 43 48 43 44 39 49 48 47 45 45 45
36 36 37 36 36 36 33 30 32 36 38 39 39 37 38 38 38 36 40 43 44 49 45 38 36 39 44 47 44 45 50 49 49 49 43 43 41 46 46 41 39 37 45
36 36 36 36 36 36 32 32 33 35 37 38 37 38 37 38 37 38 42 46 49 47 42 37 41 45 41 45 38 37 41 39 41 39 39 43 40 40 39 38 32 34 43
35 36 37 36 35 35 35 31 31 32 36 37 39 39 38 37 39 39 43 45 44 39 37 44 48 46 40 38 30 30 35 40 42 35 35 36 38 36 21 27 30 30 32

GFSMA_850_spd_012.txt.gz
Wind_Speed
14 15 16 18 19 20 21 22 23 24 26 26 26 27 28 27 26 27 28 28 30 32 34 35 37 36 34 34 35 37 36 36 35 34 33 32 31 30 30 28 28 28 27
17 18 19 21 22 23 25 26 28 29 30 31 31 31 31 32 31 31 31 32 31 33 36 37 39 40 40 36 37 39 41 40 38 38 38 38 37 35 34 33 32 31 31
20 21 22 23 24 24 26 28 29 31 33 35 36 37 36 35 35 35 35 35 35 35 36 38 40 42 43 43 40 41 43 44 43 43 42 41 41 40 40 40 37 36 35
21 22 23 24 25 26 28 30 31 33 35 36 38 38 38 37 36 37 37 38 39 40 40 39 40 41 43 45 44 43 45 46 46 46 46 46 45 45 45 44 43 41 40
22 24 25 25 26 29 30 31 33 34 36 38 39 38 38 38 37 37 38 39 39 40 43 43 42 42 42 44 45 46 47 48 49 50 50 50 50 50 50 49 48 46 44
24 25 25 26 27 29 30 31 32 32 34 34 36 37 37 37 37 39 38 37 37 37 37 36 38 40 41 43 44 47 47 48 49 50 52 53 54 54 54 53 51 50 49
19 20 23 25 25 27 29 29 31 33 33 32 36 37 38 39 38 37 38 35 38 38 35 35 35 34 32 30 31 30 35 43 46 48 49 49 51 52 54 53 54 54 51
14 15 18 19 21 23 24 24 25 26 29 27 32 34 27 29 33 30 33 38 38 36 37 37 37 36 36 36 33 32 31 30 32 35 39 43 46 49 51 52 52 53 52
12 14 15 17 18 20 21 22 22 23 26 26 26 29 20 24 35 36 33 41 40 37 42 39 40 41 42 43 41 40 37 36 35 37 39 42 43 43 45 49 50 52 52
12 14 15 17 19 20 21 22 23 24 24 25 25 26 30 35 33 36 30 27 34 40 38 40 42 43 40 41 42 42 40 39 39 39 40 40 44 46 44 43 47 50 51
17 19 20 22 23 24 25 26 27 27 27 28 27 28 30 32 32 30 38 33 37 38 39 41 42 44 45 42 42 39 40 39 38 41 40 43 39 41 44 43 44 45 47
23 25 26 27 28 28 29 30 30 30 31 31 30 30 29 28 30 31 33 36 37 38 36 35 38 41 42 44 45 44 44 43 43 39 35 42 41 41 39 43 45 44 46
30 32 33 33 34 34 33 33 33 32 32 31 31 31 30 29 28 29 31 34 32 37 37 38 34 30 34 38 38 39 42 42 43 42 42 40 39 44 43 40 44 47 47
31 32 32 33 33 33 33 34 34 32 31 29 28 27 29 32 32 31 29 29 35 35 34 35 29 29 34 38 40 40 41 43 46 45 43 45 43 40 41 44 42 44 48
30 30 31 31 32 32 33 33 34 33 32 30 28 30 33 34 32 28 25 26 27 29 37 49 33 34 33 39 41 41 43 44 44 47 49 45 44 44 44 40 45 40 43
29 30 30 30 31 31 32 33 34 34 32 31 34 36 35 33 29 26 27 28 28 28 30 44 46 41 41 42 43 39 39 39 41 42 43 44 44 42 41 43 40 45 45
28 29 30 30 31 32 33 33 33 33 34 35 36 36 33 27 26 29 28 31 33 29 30 43 41 47 47 43 40 40 41 43 41 39 39 40 42 41 37 38 39 42 43
27 28 29 31 32 34 35 36 36 36 36 37 37 33 29 28 31 33 34 38 37 26 31 37 49 48 44 43 44 42 39 40 43 40 41 41 37 35 35 34 34 37 38
27 29 31 34 35 37 37 37 37 39 38 37 35 35 37 37 39 41 42 41 32 29 37 38 46 47 48 46 39 39 42 43 36 35 35 33 32 31 35 35 35 36 38
30 32 33 35 36 37 37 37 38 39 39 36 39 42 43 41 40 40 37 36 32 39 38 33 34 39 41 41 37 38 45 42 44 37 36 34 35 34 35 37 34 39 37
31 33 35 36 37 38 38 38 37 37 37 40 42 44 44 43 36 30 34 36 36 38 37 36 38 36 38 37 37 37 40 44 43 39 40 38 34 37 34 34 34 33 32
34 36 38 39 40 39 38 36 32 34 35 40 42 42 40 38 35 36 35 35 35 38 40 41 41 41 42 40 38 40 35 40 47 37 30 41 40 40 45 45 46 41 33
38 38 39 39 39 38 37 34 31 31 36 37 38 38 39 39 38 39 41 40 41 38 37 42 45 44 42 39 39 43 44 40 45 47 44 54 42 44 37 39 40 37 35
38 38 38 37 37 38 36 33 30 33 35 35 37 38 38 40 41 39 42 44 44 46 45 40 41 43 41 38 37 44 44 49 47 43 38 44 38 40 36 38 40 35 36
37 37 38 38 38 39 36 30 32 34 35 38 38 39 36 38 39 39 41 47 49 47 46 41 37 37 37 41 40 36 40 38 37 38 41 41 40 43 46 43 38 36 35
37 39 40 39 38 38 36 31 31 33 36 39 41 41 37 37 38 37 44 44 41 48 46 48 46 42 39 35 31 31 34 36 34 33 21 20 25 25 20 24 24 19 14

GFSMA_850_spd_015.txt.gz
Wind_Speed
12 14 15 16 16 17 18 20 21 23 24 25 26 27 28 29 29 30 30 29 27 27 29 32 34 35 36 36 36 37 37 39 39 37 37 36 35 34 33 32 32 31 30
14 15 16 17 18 18 20 22 24 26 27 29 30 31 32 32 33 33 34 34 33 32 32 33 35 37 39 39 39 40 40 40 43 43 41 39 39 39 38 37 36 35 34
16 17 18 18 19 20 21 23 25 27 28 29 32 32 33 33 34 34 35 36 37 38 36 37 38 39 40 41 41 42 44 43 44 46 46 45 44 42 41 40 40 40 40
17 18 20 20 21 23 24 26 27 29 30 31 32 33 34 34 34 33 33 33 33 33 35 36 37 40 42 43 43 42 44 46 46 49 50 49 48 48 47 46 45 44 43
17 19 21 21 22 24 26 27 28 30 30 32 34 36 36 34 34 34 33 33 32 32 32 31 31 32 35 39 44 45 46 47 48 50 51 53 54 53 52 51 50 50 49
16 16 17 18 20 22 24 25 27 27 29 31 32 34 33 32 33 36 36 33 33 32 32 33 33 33 31 31 32 37 44 48 50 52 54 54 55 56 56 55 54 53 53
11 12 13 15 16 18 19 21 23 25 26 26 30 34 34 35 27 31 25 27 36 38 35 34 34 34 35 33 31 31 32 33 38 42 49 54 54 56 58 58 58 57 56
10 11 13 14 16 17 18 20 22 24 25 24 24 29 21 28 24 21 35 38 32 37 36 34 35 37 36 35 36 34 36 37 37 38 38 38 42 48 54 57 58 58 58
11 12 14 16 18 20 22 23 24 25 27 28 24 18 16 17 37 34 30 34 29 31 33 41 35 35 36 37 38 36 36 36 38 40 42 42 42 42 44 48 51 54 55
14 16 19 21 23 25 26 27 27 28 29 30 30 25 27 31 23 33 24 29 31 27 30 37 42 42 41 38 39 40 40 39 37 39 41 44 45 45 44 45 47 50 53
20 22 25 27 28 28 28 28 28 27 27 28 27 27 29 29 26 25 40 29 33 29 30 35 37 35 32 34 40 38 37 35 35 37 36 38 40 43 45 44 45 47 50
28 30 31 31 31 31 30 30 29 28 27 27 27 26 24 21 22 25 33 41 39 39 32 30 35 36 34 33 33 33 33 33 33 34 34 37 40 39 42 40 44 45 47
30 30 30 30 30 29 28 28 28 28 28 28 26 26 25 24 29 27 29 34 34 38 37 31 27 27 28 30 31 35 37 37 39 39 38 37 38 40 40 41 41 43 47
28 28 28 27 27 27 27 28 29 29 29 28 28 28 30 31 30 27 26 29 36 34 37 36 29 27 26 28 33 38 40 41 42 43 42 40 41 42 42 41 39 46 48
27 26 25 24 24 25 27 29 31 32 32 33 33 33 33 32 28 26 25 25 27 28 37 52 37 34 30 30 33 39 41 39 34 34 35 36 39 41 42 42 39 40 46
23 22 23 24 26 28 30 32 33 34 34 35 33 34 32 30 28 26 26 28 25 26 28 46 49 38 30 42 46 40 38 43 41 40 40 41 41 39 38 39 40 39 39
22 23 25 26 28 31 33 34 35 36 37 35 34 33 29 23 34 35 32 30 32 32 32 50 40 39 42 47 46 42 44 43 43 38 38 39 38 41 40 39 38 37 36
22 24 26 29 31 33 35 36 37 36 35 34 33 26 28 31 35 30 31 30 31 28 33 39 39 45 42 39 38 44 43 34 39 42 41 39 37 38 40 37 34 32 33
24 26 29 32 34 35 36 36 36 36 34 33 30 30 35 33 33 32 30 31 28 33 33 35 41 41 40 37 41 41 39 43 39 37 35 36 33 37 42 43 39 34 32
27 29 31 33 34 36 36 36 36 35 34 33 31 34 32 30 30 32 32 32 34 36 36 36 38 40 40 41 40 43 43 40 41 36 33 31 37 35 31 35 38 37 35
29 31 34 35 36 36 36 36 33 33 34 35 36 34 32 31 30 30 32 38 37 38 40 40 40 39 39 41 43 43 40 42 40 34 37 46 34 35 31 30 29 27 33
32 34 36 37 37 36 35 34 33 32 31 32 35 34 32 33 31 32 35 34 34 38 41 41 43 41 43 44 46 42 44 40 39 32 34 38 40 46 40 35 39 40 40
36 37 36 36 37 36 36 35 30 28 31 31 31 34 37 33 34 37 36 36 37 36 38 40 42 41 41 47 43 45 44 34 41 45 40 43 41 40 36 33 29 28 30
37 37 37 36 38 38 36 32 28 29 32 30 31 32 33 35 38 35 39 36 42 51 42 39 40 42 41 44 42 42 42 45 42 43 33 36 35 42 39 35 30 35 38
37 38 38 39 39 39 35 30 29 32 34 33 33 34 31 39 37 36 36 40 48 48 45 38 38 38 37 40 35 35 38 35 37 41 29 32 34 27 25 26 28 26 28
38 39 40 39 37 37 34 28 29 32 36 37 36 32 35 36 37 30 38 44 46 46 45 47 48 45 35 34 29 29 31 35 36 41 21 22 31 31 18 15 16 12 22

GFSMA_850_spd_018.txt.gz
Wind_Speed
9 10 11 12 13 14 15 15 17 17 18 19 20 22 25 26 27 28 29 34 35 32 31 32 32 33 34 35 37 38 39 38 39 40 40 39 38 39 38 37 37 36 35
10 11 13 13 15 15 17 19 20 23 25 24 25 26 27 26 27 28 29 31 36 36 34 35 36 37 38 38 38 39 40 41 41 43 44 45 45 43 41 41 42 41 40
12 13 14 15 15 16 20 21 21 21 21 22 23 23 24 25 26 28 27 27 27 32 31 28 30 34 37 40 41 42 43 43 44 45 47 49 50 49 48 46 45 44 45
12 13 14 15 16 20 20 20 19 20 20 20 21 23 24 25 27 26 26 26 26 28 30 33 30 30 32 35 38 40 43 45 47 47 48 49 51 53 53 52 50 49 48
11 12 13 14 16 16 16 18 20 20 22 21 23 25 25 27 26 25 26 26 26 29 30 30 31 32 31 32 33 35 40 45 48 49 51 51 51 55 55 55 56 55 53
6 7 9 11 13 14 13 16 17 17 17 19 21 23 24 25 25 23 23 22 23 24 26 28 28 30 34 32 32 31 34 37 39 47 53 54 54 54 56 60 60 59 58
8 9 11 13 15 16 18 20 19 20 19 19 22 25 24 23 18 24 21 19 27 29 29 28 32 30 29 31 33 35 32 31 33 37 40 47 56 58 59 60 61 61 61
11 12 14 15 17 18 20 22 23 24 21 19 21 26 22 28 19 19 31 31 25 30 29 27 28 31 32 35 33 36 36 34 34 35 38 42 45 46 52 59 62 62 62
12 14 16 18 20 22 22 22 21 20 19 21 17 16 20 21 34 29 27 28 22 25 30 31 29 30 33 35 37 38 40 41 40 40 41 42 43 46 48 49 52 58 63
15 18 21 22 23 22 22 22 21 21 18 18 19 17 20 24 29 35 21 28 25 23 30 34 33 33 34 36 34 36 37 38 41 39 38 39 43 41 43 46 49 51 54
20 22 24 25 25 24 23 22 22 21 17 17 17 19 20 21 24 29 37 29 34 30 32 34 34 32 32 34 38 37 33 33 36 35 36 37 38 40 45 45 44 48 51
23 26 26 25 24 23 22 22 23 22 22 23 21 18 18 21 24 26 34 38 38 36 31 33 33 30 28 31 34 32 35 36 35 35 34 34 36 38 40 40 46 50 35
24 25 24 22 21 21 22 23 24 25 24 25 23 20 19 21 22 24 28 36 37 39 36 32 30 29 28 29 31 35 41 42 43 40 37 37 38 40 41 38 39 42 47
23 22 21 20 20 21 23 24 25 25 22 20 23 21 21 23 22 23 25 30 38 39 40 42 33 31 31 32 35 38 37 36 41 37 35 37 38 38 40 41 40 39 40
20 20 20 20 21 23 25 27 26 25 25 22 24 22 23 24 23 24 24 26 29 35 39 49 41 38 37 38 42 36 36 42 46 45 46 43 42 41 42 45 43 42 42
19 19 20 21 23 25 27 27 26 26 23 24 23 24 24 25 25 25 28 29 28 32 36 43 44 44 38 39 36 38 40 45 44 37 41 39 36 39 40 42 43 44 45
19 19 21 23 24 27 27 27 27 24 24 25 24 25 26 25 27 28 29 29 29 31 33 43 38 44 43 41 41 41 41 39 42 40 41 36 40 42 41 42 43 42 42
19 20 22 24 26 28 30 29 26 24 25 25 26 26 27 26 29 29 28 30 31 32 33 37 43 43 43 43 42 40 42 41 42 43 40 41 39 38 39 41 40 43 44
19 22 24 26 29 30 31 28 25 26 26 26 27 28 28 29 30 29 30 32 32 33 36 39 43 41 42 42 42 41 40 41 43 41 37 37 35 34 35 37 41 43 43
22 24 26 28 30 31 30 25 30 27 28 27 28 28 29 28 29 31 33 32 33 37 39 39 39 40 40 44 41 40 42 42 41 41 40 39 34 36 34 41 37 34 33
24 26 28 29 30 30 25 33 32 29 28 29 28 29 29 29 30 29 31 36 36 40 40 39 39 40 44 44 42 42 40 44 47 44 42 42 34 30 35 40 41 38 38
26 28 29 29 29 29 32 33 31 28 28 29 30 31 30 30 29 32 33 35 34 38 42 36 38 43 46 40 42 44 42 42 44 47 34 39 41 43 44 42 38 32 32
30 29 28 29 31 31 32 32 28 27 28 28 29 31 32 31 33 33 37 37 38 40 30 37 42 43 44 44 43 46 45 42 45 50 40 44 42 38 41 40 37 36 32
28 27 27 30 30 27 30 26 27 26 28 28 28 29 31 34 33 36 41 43 36 34 38 42 42 42 44 45 44 44 45 48 49 45 32 37 34 42 39 39 32 27 28
29 27 29 27 28 28 26 26 26 28 29 30 29 29 33 35 35 38 42 39 42 43 45 40 38 41 40 40 35 36 40 38 40 37 30 33 35 32 31 38 40 32 31
28 29 27 25 25 26 23 24 26 28 31 33 33 33 33 34 38 38 41 47 44 43 46 48 45 41 34 32 30 29 34 38 37 40 26 31 34 34 29 23 18 16 21

GFSMA_850_spd_024.txt.gz
Wind_Speed
5 4 8 10 10 11 13 14 15 15 16 18 19 19 20 22 23 25 27 27 28 29 30 31 32 32 30 29 32 35 35 35 35 36 37 39 40 42 42 41 40 39 39
8 8 8 6 8 10 12 11 14 16 17 18 20 22 25 25 25 25 27 29 30 31 30 29 30 31 30 29 29 31 35 38 39 38 39 39 40 42 44 45 45 45 44
6 6 7 7 7 9 12 14 16 17 16 17 18 20 21 23 24 24 25 26 26 26 27 27 26 29 31 33 31 31 33 34 37 40 43 42 41 43 45 47 48 49 48
3 5 3 8 10 12 10 11 11 12 14 16 18 19 22 24 27 28 28 26 26 23 23 26 29 26 27 29 31 31 31 33 34 36 40 43 46 47 46 45 48 52 53
2 4 4 4 2 4 6 10 13 16 19 21 22 23 24 26 28 26 24 24 22 21 20 20 20 24 29 31 35 33 32 33 34 34 35 38 41 45 48 51 51 51 53
4 2 2 4 7 9 12 15 18 19 21 22 25 26 27 26 14 15 20 19 23 28 27 29 32 33 29 27 26 24 26 29 34 36 39 38 37 40 41 44 49 54 56
6 6 8 10 11 13 15 18 21 23 23 22 26 29 28 12 17 22 17 28 31 31 32 29 25 26 29 31 34 35 38 37 36 33 34 39 40 41 42 41 39 41 47
8 9 12 14 16 17 19 19 20 21 20 20 20 24 16 27 6 30 24 32 15 17 23 31 32 32 34 37 39 42 43 45 42 35 34 36 33 33 36 37 38 38 40
10 13 16 18 20 20 20 19 19 19 21 20 19 15 12 9 39 16 33 15 19 34 25 31 36 37 37 31 30 33 36 35 35 33 33 33 33 36 34 33 31 35 36
12 16 20 22 22 21 19 18 18 18 19 21 22 21 19 23 26 26 15 34 25 36 37 34 36 29 28 34 39 33 29 29 31 31 33 34 36 36 34 33 36 35 36
17 19 23 23 23 21 19 18 19 19 21 21 22 24 28 27 29 30 38 29 39 32 33 34 30 35 35 36 32 33 36 34 36 33 34 36 36 37 39 38 35 34 35
17 20 22 22 22 20 20 20 21 21 23 24 24 26 26 26 33 32 36 41 40 38 33 31 33 29 32 34 32 33 38 44 47 45 40 41 42 42 43 40 41 43 43
18 21 23 21 20 19 19 21 23 25 26 26 26 29 26 29 32 30 35 40 39 41 37 34 33 31 30 29 38 40 41 43 44 43 45 44 42 41 42 43 45 46 42
20 22 21 19 18 19 21 23 25 26 27 27 28 27 29 30 28 30 33 35 45 43 41 39 34 36 36 28 38 35 37 30 39 41 41 38 41 43 43 45 45 41 41
20 19 18 18 19 21 23 25 27 29 28 29 27 28 31 31 32 31 32 33 34 43 46 45 41 39 36 38 37 33 41 39 38 40 40 41 39 40 40 42 42 42 42
18 17 17 19 21 23 26 28 30 30 30 27 28 33 32 32 33 34 32 32 33 35 46 48 44 44 46 40 40 38 39 40 41 36 37 39 41 41 43 44 43 42 44
16 16 19 21 24 26 29 31 31 31 30 28 34 34 33 34 34 33 35 34 35 33 36 48 49 47 46 50 52 40 39 40 40 34 37 42 43 41 41 42 44 44 42
16 18 21 24 26 29 30 31 31 31 27 33 39 36 35 34 36 34 33 36 34 36 39 41 47 45 47 50 45 49 40 41 31 39 39 46 40 38 42 41 41 43 45
17 20 23 26 29 30 31 30 30 28 33 40 38 37 36 34 34 34 35 37 40 38 36 36 46 49 45 45 49 47 42 36 36 39 47 38 38 38 39 39 40 40 41
20 23 26 28 30 30 30 32 28 35 38 39 39 36 31 30 33 36 38 38 34 34 36 41 43 43 43 50 43 35 43 43 48 44 42 42 36 39 39 38 36 38 39
22 26 29 30 29 30 31 27 31 32 37 40 39 30 31 32 32 33 34 36 38 42 43 38 40 43 44 44 39 41 46 49 49 43 43 39 41 42 43 38 37 34 32
26 28 29 29 29 30 33 29 27 32 35 37 35 34 34 34 33 33 35 38 37 39 41 44 41 44 48 46 45 43 43 48 51 37 35 56 42 45 44 39 35 31 33
28 28 29 30 31 33 31 27 28 31 33 37 33 36 36 35 37 41 39 39 40 37 37 42 44 44 47 46 46 48 46 44 44 45 44 48 40 42 39 43 40 39 34
28 29 31 32 33 33 28 28 28 30 35 34 36 35 35 39 41 38 41 43 45 45 41 40 40 42 42 45 44 43 44 50 49 42 34 42 41 41 46 44 37 38 38
29 31 32 33 32 31 31 27 27 31 37 37 35 33 35 40 38 38 41 46 45 42 46 38 37 38 40 39 37 40 42 41 44 39 36 43 39 43 46 44 39 27 28
30 32 32 31 31 33 29 26 27 32 34 36 37 41 39 37 39 39 40 44 40 45 43 42 44 46 40 41 35 34 39 41 42 44 38 38 41 40 40 33 15 25 34

GFSMA_850_spd_027.txt.gz
Wind_Speed
8 7 6 8 7 8 9 10 11 12 15 18 17 18 18 19 22 24 23 24 25 25 26 28 28 27 28 28 28 27 28 30 33 36 36 35 35 36 38 40 41 41 40
10 10 10 6 7 8 9 11 13 16 16 16 16 17 17 17 17 19 19 20 22 23 22 21 21 25 23 26 27 26 27 29 31 32 35 39 39 38 37 40 42 44 44
6 6 4 4 7 10 13 17 16 16 16 15 16 17 18 19 21 21 23 22 22 19 20 21 21 22 24 24 24 24 26 32 32 30 30 33 36 40 43 42 40 43 48
5 5 4 7 11 13 13 12 12 13 15 17 20 20 21 22 22 22 24 22 20 18 18 19 19 20 20 23 25 24 24 31 33 33 33 33 33 33 35 41 45 46 45
5 5 4 6 7 7 9 11 14 17 20 22 24 24 24 22 19 17 14 12 15 19 22 24 27 27 28 27 29 27 26 24 26 28 29 29 31 32 34 35 37 42 47
4 1 1 3 6 10 13 15 18 19 20 22 23 23 22 13 12 13 17 18 18 25 26 23 22 24 26 28 28 30 33 34 36 37 35 35 34 31 35 39 35 35 37
4 3 6 9 12 15 17 19 20 20 20 22 25 28 24 17 11 6 13 23 25 22 16 22 26 31 29 30 32 35 39 40 38 31 31 31 30 31 32 34 33 35 34
4 6 9 13 16 18 18 19 19 19 18 19 22 22 15 22 5 35 16 30 24 16 24 30 33 34 32 32 29 28 30 33 36 33 31 30 32 33 33 34 37 38 34
5 9 13 16 18 19 18 17 17 18 20 19 19 14 10 9 39 16 34 19 16 30 28 37 34 34 30 27 29 33 35 34 29 27 26 27 28 30 31 34 33 35 36
8 12 16 19 20 19 17 16 16 16 19 21 23 21 17 21 17 21 20 41 28 37 39 39 37 33 28 35 30 29 29 28 30 31 32 33 34 35 37 38 37 38 38
10 14 18 20 20 18 16 16 16 18 20 21 22 25 26 29 29 27 32 29 39 40 42 38 41 33 34 32 38 32 32 33 34 36 38 38 38 38 39 41 43 44 41
13 16 19 20 18 16 16 17 19 20 22 23 23 23 24 27 29 35 41 41 37 36 29 34 32 31 32 30 32 37 38 39 40 38 37 36 37 38 39 40 40 40 40
15 18 20 18 15 16 17 19 21 22 24 25 26 27 26 24 28 31 35 41 37 38 38 31 31 27 27 33 33 26 35 34 35 32 37 39 38 37 38 37 41 44 44
16 18 17 15 15 17 18 20 22 25 26 27 27 26 25 28 32 31 32 37 45 43 39 37 33 32 31 32 28 38 38 32 37 41 41 39 41 39 37 36 37 39 39
16 16 15 14 16 18 21 23 26 27 28 27 27 26 28 34 33 32 33 34 34 41 47 44 39 37 34 37 36 32 38 42 41 40 38 39 39 37 37 38 40 42 42
16 15 14 15 18 20 23 26 27 27 28 29 27 29 33 38 35 33 31 32 35 35 44 47 45 43 43 38 38 37 41 39 39 38 38 38 38 35 37 41 45 43 42
14 14 16 18 21 23 26 27 27 28 30 30 30 35 39 37 34 33 32 30 32 32 38 53 49 48 48 51 48 45 38 38 41 39 36 36 35 41 42 48 45 42 41
14 15 17 20 23 25 26 27 29 30 30 32 37 37 38 37 32 29 29 33 35 39 37 41 50 49 49 51 49 48 40 40 36 37 32 36 40 48 47 44 41 39 40
14 16 19 23 25 27 28 29 31 29 31 33 35 38 38 32 30 30 33 36 37 35 32 35 45 48 48 42 47 42 42 47 41 38 42 43 42 43 41 39 37 38 40
16 19 22 24 26 28 30 31 30 31 30 33 36 37 35 31 30 33 35 34 33 37 40 41 44 41 46 39 38 45 47 44 42 41 42 42 39 37 34 37 41 37 37
18 22 24 25 27 29 30 29 29 29 31 34 36 35 35 29 29 29 31 37 39 41 42 38 43 39 36 47 44 43 45 46 44 41 41 42 34 38 47 42 37 35 33
21 23 24 26 28 28 29 28 26 29 32 33 36 38 37 34 32 32 35 35 34 39 43 45 38 38 45 43 43 45 46 40 42 38 36 45 41 46 44 39 36 34 34
23 24 25 27 28 29 29 27 27 29 31 34 35 37 38 36 36 39 40 37 40 39 36 38 42 43 44 45 48 44 41 42 44 45 43 50 39 41 39 41 37 34 36
23 25 27 28 29 29 28 27 27 28 31 35 35 35 34 39 39 37 41 44 44 40 40 36 37 41 43 43 43 44 44 47 44 42 37 45 40 43 44 44 36 35 37
25 27 28 29 29 30 30 26 25 29 33 33 35 36 36 36 39 37 39 43 42 40 43 36 35 36 40 39 36 38 41 40 41 38 43 40 43 45 42 43 36 25 22
26 28 29 29 30 30 30 25 25 27 32 35 38 42 37 37 36 36 39 39 37 44 40 37 43 43 36 36 33 33 37 38 39 41 40 36 41 41 36 33 21 29 33

GFSMA_850_spd_030.txt.gz
Wind_Speed
5 7 7 6 7 7 8 9 10 12 14 17 19 20 19 20 20 19 18 18 20 22 24 24 25 21 20 21 21 23 25 23 23 25 26 28 32 34 35 33 36 39 40
10 10 10 11 8 9 10 13 15 18 19 18 20 19 18 18 19 20 20 20 20 22 22 21 21 21 20 20 21 24 24 22 24 24 27 29 29 30 33 37 38 37 39
9 10 8 6 9 10 13 16 16 19 19 17 18 19 20 21 22 23 24 25 25 22 20 18 17 16 17 18 19 20 19 22 24 26 30 33 32 31 30 31 33 38 42
7 8 7 7 10 12 14 16 14 15 17 20 21 22 22 20 20 20 20 17 14 13 14 18 20 21 20 21 21 22 25 25 27 28 28 30 28 29 29 30 31 32 34
8 7 6 8 9 9 11 13 16 18 21 22 22 21 19 17 14 11 10 9 13 17 19 22 21 19 20 22 24 26 27 28 30 31 31 32 29 29 28 29 28 30 31
6 5 3 4 7 10 13 15 17 18 19 21 21 20 18 11 11 18 13 12 18 20 23 21 17 21 25 28 29 29 29 30 30 28 29 30 31 32 30 30 30 31 33
5 2 3 7 11 14 17 18 17 17 16 19 22 23 18 9 9 5 11 16 23 20 16 17 26 30 29 29 28 28 30 31 31 29 27 25 25 25 26 28 31 31 33
3 1 6 10 14 16 18 18 17 15 15 19 22 19 13 17 4 23 11 28 20 23 26 28 29 31 30 29 28 27 30 31 31 29 25 26 27 28 29 30 31 32 33
1 5 9 13 16 18 17 15 15 16 17 17 18 12 9 7 34 13 34 24 33 29 34 32 33 32 30 31 29 33 29 32 29 27 29 30 30 31 32 33 34 36 36
3 8 12 16 18 17 14 13 14 15 17 18 19 16 14 16 13 20 26 41 34 41 39 38 36 34 36 30 32 32 32 27 32 32 32 33 34 35 35 36 37 38 38
6 10 14 17 17 14 13 13 14 15 17 19 20 23 24 25 24 20 31 34 44 43 42 37 38 39 33 34 32 33 32 34 28 28 33 34 35 36 36 38 39 40 40
7 12 15 16 15 13 13 14 16 17 19 20 21 22 23 23 24 27 36 37 34 38 35 42 39 36 35 32 35 37 32 27 32 37 35 32 33 37 38 39 40 39 40
9 13 14 13 13 13 14 16 18 20 22 24 24 24 23 21 23 28 36 42 35 40 34 31 26 26 29 31 35 32 30 35 34 33 33 38 39 39 39 39 40 40 41
11 13 13 13 13 14 16 18 21 23 24 24 24 25 23 24 28 32 33 34 43 35 34 31 31 28 27 30 28 31 34 33 33 36 37 39 40 39 39 40 40 39 38
11 12 13 13 14 16 18 21 23 24 24 25 26 25 26 30 33 33 32 29 29 39 43 36 33 33 32 33 34 34 36 37 35 36 38 39 40 41 41 39 39 41 39
12 12 12 13 15 18 21 23 24 23 25 26 26 29 32 32 34 33 30 28 26 30 41 44 45 41 37 35 36 37 38 34 36 40 38 39 39 40 39 40 40 38 40
11 11 12 15 18 21 22 23 24 26 26 26 29 31 32 34 35 33 31 29 30 31 36 49 48 46 45 47 43 38 36 37 37 35 39 45 46 44 43 43 42 43 46
11 12 14 17 20 22 23 24 26 26 27 29 29 31 33 34 35 33 30 30 32 34 35 38 48 51 47 49 45 42 39 33 36 42 42 42 42 42 44 46 46 46 46
11 13 17 19 21 23 25 26 26 27 27 27 29 32 34 34 37 34 32 34 35 33 33 39 46 50 50 44 47 40 39 44 39 38 40 36 36 37 39 39 41 41 40
13 16 18 20 22 23 25 26 27 27 28 29 30 32 33 34 37 33 35 34 33 39 41 42 44 42 44 43 32 45 46 40 44 45 41 36 37 40 39 37 38 39 41
15 18 19 20 22 24 26 27 26 27 29 31 31 31 32 35 31 30 31 37 39 42 43 40 44 45 30 45 39 43 45 48 45 36 35 48 42 40 43 43 42 40 39
16 18 20 22 24 25 26 24 24 28 30 31 33 34 36 34 30 33 36 34 34 39 42 45 33 42 44 40 43 46 45 38 44 41 39 45 41 46 46 45 39 36 37
18 19 21 23 24 26 26 26 26 28 30 32 33 32 34 34 37 37 38 36 38 38 31 40 40 40 41 46 44 39 43 44 45 49 43 48 42 42 43 44 38 37 38
19 21 22 24 25 27 27 29 28 28 30 30 31 31 33 38 36 36 38 43 34 45 42 39 36 40 40 42 44 44 42 44 43 43 35 41 45 46 44 42 39 38 37
19 22 23 25 27 28 28 28 25 29 31 32 32 32 33 34 38 35 37 41 41 44 42 35 35 36 40 35 33 35 39 38 40 43 40 37 44 45 44 44 38 30 22
21 23 24 26 26 27 27 27 23 27 33 35 36 39 35 36 35 33 39 38 42 38 40 37 45 38 32 34 31 30 35 38 39 43 39 35 42 41 31 35 27 35 35

GFSMA_850_spd_033.txt.gz
Wind_Speed
3 5 6 5 6 6 6 9 10 12 15 18 19 20 20 20 20 19 20 20 21 21 20 21 22 23 23 22 20 19 15 20 19 19 20 21 21 23 25 27 31 33 33
5 5 8 8 8 7 10 12 15 18 19 20 21 21 20 20 22 22 24 24 24 24 24 22 21 20 19 18 19 20 19 20 18 20 21 22 23 25 28 29 29 29 32
7 9 7 6 5 8 11 14 17 20 21 20 20 21 22 23 24 24 24 23 22 21 19 18 17 17 18 18 20 21 22 24 22 23 24 25 26 27 26 27 29 28 29
9 10 10 8 8 9 13 16 16 18 21 23 24 23 22 22 22 20 18 17 15 15 15 17 18 19 21 22 23 24 25 26 28 30 31 30 30 29 28 27 27 26 27
10 9 8 8 7 7 11 15 18 21 23 23 22 21 19 19 17 14 11 12 14 16 19 22 22 22 22 23 25 27 28 30 32 34 35 35 36 34 34 32 34 30 28
10 8 6 5 6 9 13 16 18 19 20 21 21 20 18 15 13 14 15 10 14 22 23 20 22 23 24 29 30 29 30 31 33 34 34 33 32 28 29 25 24 25 27
8 6 4 5 8 12 16 18 18 16 16 19 22 21 13 6 19 13 11 18 20 27 19 26 27 29 31 30 30 29 30 31 30 28 27 25 24 24 25 26 26 27 28
7 5 4 7 11 15 17 17 16 15 15 19 21 19 12 15 5 9 25 16 28 23 30 26 30 29 30 31 30 32 33 32 32 26 23 25 26 27 28 28 29 30 30
7 4 6 10 14 16 16 15 14 15 15 15 17 11 8 6 33 13 27 25 28 32 35 34 33 33 31 33 34 33 33 33 28 27 30 28 28 29 30 31 32 33 33
5 5 8 12 15 15 14 13 13 15 16 18 17 15 14 17 13 18 19 40 34 42 42 40 37 35 37 35 33 33 33 32 32 31 29 27 31 32 32 33 34 35 35
4 6 10 14 15 14 13 12 13 15 17 18 19 21 22 22 19 17 34 39 47 46 46 40 42 39 36 34 34 34 31 31 28 29 29 34 34 33 32 33 35 36 38
4 8 12 14 14 13 12 13 15 16 18 19 20 20 21 20 22 23 34 41 42 46 44 46 39 38 37 36 35 35 35 29 29 31 33 33 33 34 36 37 39 40 40
6 9 12 13 13 13 14 15 17 18 20 21 21 22 21 20 22 26 34 43 43 49 40 34 33 36 35 36 36 37 35 31 33 35 35 35 35 36 37 39 40 41 41
7 10 12 12 12 13 15 17 19 21 22 22 23 23 22 22 26 27 30 34 44 31 39 34 36 36 29 31 31 31 35 36 36 36 36 37 38 39 40 41 41 42 43
9 10 11 12 13 15 17 19 21 22 23 24 24 24 26 27 27 29 29 27 28 34 46 34 29 40 35 36 35 34 37 37 34 36 38 39 42 42 41 41 42 42 42
9 10 12 13 14 17 20 22 22 23 24 24 26 28 28 28 30 31 30 30 27 30 37 48 47 44 40 39 39 36 39 36 38 37 38 37 37 41 44 47 48 48 45
10 11 12 14 16 19 22 23 24 24 25 26 26 27 28 29 31 31 32 33 30 31 36 49 48 49 53 48 46 43 40 38 41 38 34 39 49 49 45 42 43 43 45
10 11 13 16 19 21 22 24 25 25 26 27 27 28 29 30 31 33 36 34 34 34 35 40 47 55 52 51 51 45 40 34 35 38 50 45 41 41 41 41 38 39 41
10 12 15 18 20 21 23 24 26 26 26 27 28 29 30 30 33 35 34 35 35 34 35 38 47 47 50 47 47 41 42 42 39 39 40 38 38 36 35 37 40 43 42
11 14 17 18 20 22 24 25 25 26 27 28 29 28 30 31 33 31 32 32 35 39 42 43 43 44 42 39 42 44 47 40 46 44 40 37 36 42 46 44 41 40 40
13 16 17 19 21 23 25 26 26 27 28 29 30 31 31 29 27 26 30 37 36 38 41 41 44 34 43 40 44 43 44 46 44 38 42 49 42 41 44 41 39 38 37
14 16 19 21 23 25 26 27 25 27 29 30 31 30 29 28 30 31 31 31 30 35 42 33 47 43 45 43 46 45 42 42 50 42 34 51 44 45 46 43 39 36 36
15 18 20 23 25 26 27 26 25 26 29 29 30 30 29 31 34 35 37 34 35 29 35 36 42 41 44 46 43 46 47 43 46 49 40 47 44 45 45 42 38 37 37
17 19 22 24 26 27 27 26 26 28 29 29 30 29 31 34 32 35 37 35 42 43 42 37 34 39 40 43 43 41 43 45 46 44 34 40 46 48 45 44 40 37 35
18 21 23 25 27 26 26 27 27 28 29 32 32 32 29 31 36 34 35 41 41 44 34 36 32 37 38 32 31 34 40 40 44 43 41 37 43 44 45 47 39 34 29
20 23 24 24 25 25 26 26 23 26 30 33 35 33 33 34 33 32 36 38 40 36 39 37 43 36 32 33 32 31 34 38 40 45 39 36 43 40 32 37 33 40 38

GFSMA_850_spd_036.txt.gz
Wind_Speed
5 5 5 5 5 5 5 6 8 9 13 15 17 17 19 20 20 20 21 22 22 22 20 21 21 21 21 20 20 21 20 18 21 22 22 21 20 21 21 20 21 23 25
5 6 5 7 7 7 6 9 10 14 15 17 19 19 19 21 22 23 24 23 23 21 20 20 20 20 21 19 19 19 20 22 23 23 23 25 24 23 23 24 26 26 27
6 6 7 6 6 7 9 12 14 17 17 16 18 19 21 22 23 23 23 21 19 17 17 16 16 17 17 18 20 22 23 25 26 28 27 28 27 28 28 29 30 31 30
6 6 9 9 9 11 12 12 14 17 20 21 22 21 22 22 22 20 18 16 14 13 14 16 19 21 22 23 24 25 26 27 30 31 33 33 35 36 36 35 34 34 34
7 7 13 10 10 9 10 13 17 21 23 23 21 19 18 18 17 16 13 12 14 16 16 20 23 23 24 26 27 28 28 30 32 34 35 36 37 37 36 32 32 31 25
9 11 10 7 7 9 12 15 18 20 21 21 19 16 16 13 12 11 13 16 14 16 21 23 23 26 27 28 30 31 31 33 34 34 34 33 31 26 22 22 23 24 25
10 10 7 6 7 10 14 17 18 17 18 20 21 19 10 4 14 14 10 14 19 26 24 22 28 28 29 29 30 31 32 34 34 34 34 26 24 26 25 27 26 27 27
9 9 7 6 8 13 16 17 16 16 17 20 21 19 11 11 3 3 24 20 21 24 29 26 30 30 29 28 30 33 34 35 34 30 23 26 27 28 27 27 29 30 30
11 9 6 6 10 14 16 17 16 16 15 17 18 13 8 6 31 9 29 16 25 30 32 35 35 32 33 33 32 33 33 34 33 27 29 29 30 28 29 31 33 33 32
11 8 5 8 11 14 15 15 15 16 17 17 16 15 14 16 12 18 18 37 31 41 41 40 37 38 32 32 32 33 34 34 32 29 31 31 29 31 34 35 35 35 35
10 6 6 9 12 13 14 14 15 16 17 18 19 20 20 19 18 18 34 39 46 45 44 43 40 34 35 34 33 34 33 28 28 32 31 31 34 36 35 36 35 35 36
7 5 7 10 12 13 14 14 15 16 18 19 20 20 20 19 20 22 34 42 43 43 48 39 38 36 35 34 35 38 36 31 32 31 33 35 36 37 37 38 38 39 38
5 5 8 11 12 14 14 15 16 18 19 20 20 20 21 19 22 25 30 39 44 51 32 42 38 34 33 39 39 38 37 36 36 35 36 37 38 38 39 40 40 39 40
4 6 9 11 13 14 15 16 18 20 20 21 21 22 22 22 23 24 27 32 44 32 37 36 37 26 33 38 33 30 33 32 33 35 37 39 40 40 41 41 43 44 44
5 7 10 12 13 15 16 18 20 20 21 21 22 23 24 24 24 25 26 26 28 35 49 33 25 46 44 39 34 33 35 39 34 35 37 40 41 41 42 42 41 39 42
6 9 11 13 14 16 18 19 20 21 22 22 24 24 25 25 25 26 27 27 27 32 38 47 49 47 45 43 43 35 40 35 37 36 36 36 37 40 42 42 48 50 51
7 9 12 13 15 17 19 20 21 22 24 24 24 25 26 26 28 27 27 29 31 30 38 54 48 51 52 47 45 44 41 37 37 33 36 39 47 47 45 46 45 44 44
8 11 12 14 16 18 20 22 23 24 25 25 26 27 29 29 29 29 29 29 30 30 33 43 50 51 49 46 50 43 40 45 48 44 39 39 39 41 42 42 42 42 42
10 11 13 15 17 20 21 23 24 24 25 26 28 29 31 31 31 29 27 29 29 31 33 38 46 46 49 44 41 48 46 44 41 39 38 39 37 38 40 40 41 42 44
11 12 14 17 19 21 22 23 25 26 27 28 29 30 29 28 28 27 27 29 32 38 39 40 40 43 34 46 42 46 43 44 45 40 42 43 37 38 39 39 39 39 40
11 13 16 18 20 22 23 26 26 27 28 29 29 28 27 26 24 24 27 33 33 35 40 40 32 45 42 44 44 46 45 47 45 41 41 46 41 45 47 42 39 38 36
12 15 17 19 21 23 25 26 26 27 29 29 29 28 28 28 30 29 29 28 28 36 31 42 43 40 43 43 46 45 42 46 46 40 33 52 45 47 45 45 41 35 36
13 16 18 20 23 25 26 28 28 27 27 27 27 29 30 32 30 32 33 33 32 33 35 36 39 38 43 43 41 48 48 44 45 49 43 50 45 48 46 44 39 37 37
15 17 20 23 24 26 28 29 27 26 26 26 28 29 32 35 33 32 35 35 40 41 41 34 33 37 37 41 40 39 42 44 46 45 36 43 47 48 47 46 43 37 35
16 19 22 24 26 27 28 28 27 26 28 29 29 30 32 30 34 31 33 38 40 42 32 33 31 33 38 32 29 32 38 40 43 46 45 39 43 46 49 47 36 33 32
19 21 23 24 26 27 27 27 24 25 28 30 31 36 34 32 30 31 34 36 39 35 37 36 41 35 30 29 30 30 34 37 39 43 42 37 44 42 32 34 34 44 40

GFSMA_850_spd_039.txt.gz
Wind_Speed
4 3 3 4 3 4 3 4 7 9 11 14 16 18 20 19 18 18 20 21 20 18 18 17 18 19 19 19 19 21 21 21 23 24 24 26 25 23 23 23 23 23 23
4 3 5 5 6 7 7 8 9 12 14 15 17 18 19 20 21 21 21 20 18 16 15 15 15 15 15 15 17 18 19 20 21 23 24 25 26 27 26 27 27 27 27
8 6 5 6 6 6 7 10 13 14 15 15 17 20 21 20 20 20 18 16 14 13 13 12 13 14 16 18 19 21 21 22 24 27 28 29 29 30 31 30 30 31 31
11 8 6 7 9 8 9 10 11 15 18 19 19 20 20 19 18 15 13 11 10 10 12 13 15 18 20 21 22 23 25 25 27 29 30 31 32 33 35 36 36 36 37
13 9 6 9 8 7 7 10 14 17 19 19 17 16 16 15 14 12 10 9 10 12 14 15 20 21 24 26 26 27 28 27 28 31 31 32 33 33 33 32 30 27 31
13 10 8 8 7 6 9 12 15 17 17 17 15 14 13 10 10 9 9 12 16 16 18 22 24 26 28 29 29 28 29 29 30 32 32 32 32 28 23 23 24 26 26
12 10 8 8 6 7 10 12 13 14 15 17 16 15 8 4 13 12 11 11 19 20 23 23 27 28 29 27 27 28 30 30 31 32 32 31 26 24 27 29 28 28 28
12 9 10 8 7 8 10 12 13 14 16 18 18 14 7 7 2 8 20 22 24 12 23 25 28 27 27 29 28 28 30 31 32 33 31 26 26 28 29 29 29 30 31
11 11 10 8 7 8 11 12 13 14 14 16 16 12 7 4 24 6 22 15 20 26 30 31 29 31 28 28 30 30 31 31 32 30 27 27 29 30 30 31 31 33 36
13 13 10 7 7 9 11 13 14 14 14 14 15 15 13 13 9 13 15 28 26 36 35 32 35 28 30 29 30 30 30 32 32 29 29 30 32 31 32 33 35 38 38
16 13 9 7 8 9 11 13 14 14 15 16 16 16 16 17 16 15 23 29 38 37 35 40 32 34 33 31 31 34 36 31 29 28 31 32 33 35 36 38 39 40 40
16 12 7 6 7 9 12 13 14 15 16 17 18 18 18 17 18 18 20 28 31 30 41 31 37 35 34 30 37 39 38 36 31 31 33 33 34 36 38 40 40 42 42
14 9 6 6 8 10 12 13 14 15 17 18 18 18 19 19 22 25 27 29 29 35 20 28 30 33 23 30 35 37 35 33 32 32 33 34 36 37 38 39 41 42 42
10 6 5 7 9 11 12 13 15 16 17 18 18 19 20 21 22 23 26 28 39 25 26 27 21 15 21 30 29 30 28 28 30 32 35 36 37 38 38 39 40 40 41
7 5 5 7 10 11 12 14 16 17 17 18 19 20 21 21 23 24 25 26 25 34 42 26 14 30 29 28 29 29 28 30 33 34 35 36 37 38 39 39 38 39 40
5 4 6 8 10 11 13 15 16 17 18 19 20 21 22 23 25 26 26 27 28 29 41 38 39 34 31 31 32 30 31 33 33 35 37 38 40 40 41 42 44 45 44
3 4 6 9 10 13 14 15 16 18 19 20 21 23 24 25 27 27 28 28 29 28 36 52 39 40 36 34 33 30 30 31 38 40 36 37 37 38 39 40 41 42 42
3 5 7 9 11 13 15 16 17 19 20 22 23 25 26 27 28 28 28 27 27 26 31 43 45 42 39 36 34 33 39 39 34 35 36 36 36 38 38 38 39 40 41
2 6 8 10 12 14 16 18 19 20 22 23 25 26 27 27 28 28 26 25 27 26 27 35 45 46 41 33 38 43 36 37 32 33 38 35 35 36 37 38 39 40 41
4 7 9 11 13 15 17 19 21 22 24 25 25 26 26 26 27 25 25 24 24 30 33 35 40 38 35 45 43 39 40 40 38 37 45 36 36 36 37 38 38 39 39
6 8 10 13 15 17 19 21 23 24 25 26 26 26 25 25 24 23 24 26 29 31 35 38 26 39 43 40 37 39 40 43 42 38 42 39 36 47 44 41 38 36 35
7 9 12 14 16 19 21 22 24 24 25 26 27 26 26 25 27 23 26 25 25 29 36 34 42 38 38 34 41 40 40 42 45 35 33 52 45 47 45 43 38 36 37
8 11 13 16 18 20 22 23 24 24 25 25 26 26 27 27 29 29 30 28 32 25 33 35 35 33 37 39 40 43 46 42 42 46 40 47 46 47 44 44 41 38 37
10 12 15 18 20 22 23 24 25 25 25 25 25 25 27 32 29 28 31 33 38 38 30 30 29 35 35 37 39 37 38 40 43 45 32 41 45 44 45 48 41 27 29
11 14 18 20 22 22 24 25 25 25 25 25 25 27 30 26 29 28 30 37 34 33 32 28 30 30 36 31 26 27 32 35 40 45 42 30 32 45 48 45 32 38 36
14 17 19 20 22 23 24 25 24 23 23 24 25 25 26 28 27 28 32 32 33 33 33 33 35 33 27 26 25 24 29 33 36 38 35 33 41 34 31 30 37 47 44

GFSMA_850_spd_042.txt.gz
Wind_Speed
8 6 5 4 5 6 5 5 7 9 11 13 15 16 18 18 17 18 18 18 16 16 15 16 17 17 17 17 18 19 19 19 19 20 21 22 23 23 23 23 23 23 24
8 6 5 5 7 8 8 8 11 11 13 14 16 18 19 20 20 19 17 18 14 15 15 15 15 15 14 15 16 18 19 20 21 22 23 24 25 26 26 26 26 26 27
10 9 8 6 7 8 10 10 11 12 13 15 17 19 19 19 18 17 14 12 12 13 13 13 13 14 14 16 19 21 23 24 25 26 28 28 28 29 29 30 31 31 30
13 12 10 8 6 8 10 10 10 11 14 16 17 17 16 16 14 12 11 10 10 11 13 14 16 17 18 21 22 24 25 26 25 26 29 29 30 30 30 31 32 32 33
16 14 12 9 7 8 9 7 9 13 15 16 15 15 16 14 11 10 9 9 9 12 15 18 18 21 24 24 26 26 26 26 27 26 28 29 29 30 30 30 28 30 31
18 15 14 10 8 8 7 7 11 14 15 14 13 13 13 10 9 9 9 10 13 14 19 20 23 25 28 27 27 27 27 27 28 27 28 29 28 28 25 23 25 27 27
21 17 15 10 9 8 6 8 11 13 13 14 12 12 8 7 12 10 10 13 16 21 22 17 25 26 28 28 27 26 26 27 28 28 28 30 29 27 25 27 28 30 29
22 16 14 11 10 7 7 8 10 12 13 14 12 8 4 5 4 5 19 12 16 18 19 23 27 25 26 26 25 27 27 28 29 29 30 29 27 27 28 30 31 31 33
22 15 14 12 10 7 7 8 9 10 12 13 11 6 4 4 13 7 12 15 11 20 22 25 25 26 25 25 27 28 30 30 31 32 30 29 30 30 32 33 34 34 35
20 16 14 13 9 7 7 8 9 10 10 10 11 11 8 9 5 10 8 13 16 20 21 24 24 28 24 25 28 29 28 34 36 33 30 30 31 32 34 35 37 37 38
22 18 15 12 8 7 7 8 10 10 10 10 11 12 12 11 9 8 19 14 21 20 21 18 25 20 20 23 23 21 25 29 29 28 29 31 32 34 35 37 39 40 40
22 18 15 11 7 6 7 9 10 10 11 12 13 13 12 9 9 11 18 22 25 23 21 24 18 20 23 24 23 27 35 35 33 31 30 31 33 34 36 37 38 39 39
22 18 13 8 6 6 7 9 10 11 12 13 13 13 15 14 15 16 18 24 25 26 23 17 22 23 22 20 25 31 35 34 32 32 32 33 34 35 36 37 38 39 39
19 15 10 7 5 6 7 9 10 12 13 14 14 15 16 16 16 17 18 21 30 24 26 23 25 21 16 25 29 30 29 30 31 32 34 35 36 37 38 38 38 39 40
17 12 8 5 5 6 8 9 11 12 13 14 16 16 17 17 18 18 18 18 22 33 33 24 18 23 27 28 29 30 31 31 33 35 35 36 36 38 38 39 39 40 40
14 9 6 4 5 7 8 9 11 13 14 16 17 17 18 19 20 20 19 19 20 26 38 30 30 28 27 29 29 30 31 33 35 35 36 37 39 37 37 38 39 39 39
11 7 4 4 6 7 9 10 12 14 16 17 18 19 21 20 20 19 19 20 22 23 34 40 32 30 31 30 31 29 29 33 39 37 36 36 36 36 36 37 39 40 40
9 5 3 4 6 8 9 11 14 16 17 18 19 20 20 20 23 21 19 21 22 24 30 41 39 36 34 33 31 30 33 38 35 34 34 35 37 37 37 36 37 38 39
7 3 3 5 7 9 11 13 15 17 18 19 20 21 22 23 21 19 20 22 23 26 30 35 42 40 38 36 32 38 32 32 31 32 35 35 35 37 37 37 38 39 40
5 1 3 5 7 10 13 15 17 18 19 20 21 23 23 22 19 20 22 23 25 28 31 34 37 41 36 35 40 36 34 35 36 35 39 35 34 35 36 37 39 40 39
2 2 4 6 9 12 15 16 17 18 19 20 21 22 21 22 25 22 22 23 27 30 32 35 37 32 40 40 35 36 37 39 41 35 38 39 35 43 43 38 38 36 35
1 3 5 9 12 14 16 18 19 20 20 21 21 21 20 21 20 22 24 25 26 28 34 36 37 38 35 35 35 37 42 38 46 33 29 49 42 44 42 42 37 36 37
1 4 8 11 13 15 18 19 21 21 21 21 20 20 21 20 21 23 24 26 27 29 28 34 34 32 34 34 40 41 41 44 40 43 37 48 41 43 43 42 39 37 34
3 6 9 13 15 17 19 20 22 22 19 19 19 20 21 21 22 23 28 31 32 31 28 28 29 32 35 35 35 38 38 41 41 39 30 39 43 40 42 45 36 25 33
5 9 12 15 17 18 20 21 23 20 18 18 19 20 21 23 22 27 28 33 31 30 27 26 28 30 31 33 28 29 32 33 41 39 42 29 31 42 46 43 32 31 32
7 11 14 16 18 19 21 22 23 20 17 19 20 21 22 22 26 26 30 31 33 29 29 33 29 27 24 24 23 22 27 30 35 41 30 31 40 31 27 31 36 48 43

GFSMA_850_spd_045.txt.gz
Wind_Speed
9 8 8 5 5 7 7 7 7 8 8 8 11 13 14 14 15 14 16 19 16 14 16 17 17 17 17 16 16 16 17 17 18 19 20 21 22 22 22 22 22 23 23
10 10 9 9 5 7 9 9 8 10 10 10 12 14 15 15 16 16 11 19 16 15 15 16 16 15 14 14 15 17 19 21 22 23 24 25 25 25 25 26 26 26 26
13 13 11 8 6 6 9 11 10 10 10 12 14 15 14 14 14 14 11 9 15 11 13 13 13 14 15 17 17 19 21 22 23 24 25 26 27 26 27 28 28 28 29
17 14 12 11 8 6 7 8 8 9 11 12 13 12 13 13 11 10 9 9 10 11 13 12 15 17 18 19 22 23 23 25 25 25 24 25 27 28 27 27 28 28 29
19 17 15 13 11 8 7 7 7 9 11 12 12 12 13 13 11 8 8 10 10 11 14 17 18 19 21 22 23 23 24 24 25 26 25 26 27 28 27 28 27 25 25
23 19 17 14 12 9 8 7 8 9 10 12 11 10 13 10 9 8 8 8 12 13 15 19 19 18 23 26 25 25 24 23 24 25 25 26 26 26 26 24 24 24 25
24 21 19 15 13 10 8 7 7 9 11 11 10 8 10 10 10 10 8 8 12 16 18 16 18 22 24 23 25 25 24 25 26 27 27 28 28 26 24 26 26 27 29
26 23 20 16 13 11 8 6 6 9 11 11 9 8 3 7 8 6 9 16 11 16 12 18 22 23 22 23 22 23 26 27 28 28 29 29 30 30 29 29 29 30 32
25 23 19 16 14 11 8 6 6 8 10 11 9 4 3 3 13 10 13 11 14 14 20 24 24 23 24 26 23 25 28 29 27 28 32 31 29 29 30 31 32 34 34
25 24 20 17 14 11 8 6 7 8 8 9 11 8 6 9 4 9 7 9 15 19 21 25 26 25 26 22 23 27 27 28 31 32 31 30 31 31 32 33 34 35 37
27 23 20 17 14 11 8 6 7 8 9 9 9 9 10 9 9 10 16 11 20 19 23 20 21 27 24 22 26 25 19 24 27 29 31 31 31 32 33 34 35 36 36
29 24 20 17 14 10 7 7 7 8 9 10 10 11 10 9 9 11 15 22 25 26 21 27 23 25 23 23 26 22 25 28 32 31 30 31 31 33 34 35 35 36 37
29 24 19 17 13 9 6 6 8 9 10 11 11 11 12 13 14 15 17 23 25 29 26 23 22 24 25 25 26 24 33 32 30 31 32 32 33 35 36 36 37 37 37
28 22 21 15 11 7 6 6 8 10 11 12 13 14 14 15 15 17 18 21 27 25 26 22 25 24 24 24 30 31 32 30 32 33 33 34 36 36 36 37 36 37 37
25 22 17 12 9 6 5 7 9 10 11 13 13 15 16 17 18 19 21 21 21 26 29 23 20 18 29 30 31 31 35 33 32 34 34 34 34 36 37 38 38 38 37
22 20 15 10 6 4 5 7 9 10 12 14 15 15 17 18 19 21 21 21 21 26 34 28 29 27 28 30 33 30 34 33 34 34 34 35 38 36 35 36 37 37 38
21 16 12 8 4 4 6 7 9 12 13 14 16 17 19 19 21 21 22 22 23 24 32 35 31 29 31 34 31 35 33 38 35 33 41 35 34 35 36 36 37 38 38
18 13 9 5 3 4 6 8 10 13 14 15 17 18 19 18 22 22 22 21 24 26 29 38 34 35 33 31 34 34 33 32 44 33 31 35 35 36 36 36 37 38 39
15 11 6 3 3 5 7 10 12 14 15 16 18 18 20 21 22 22 22 23 25 27 29 34 40 35 36 33 36 30 40 33 31 34 34 35 35 37 35 35 36 38 38
12 8 4 2 4 6 9 11 13 15 16 17 18 20 22 23 23 22 25 24 25 28 30 33 39 41 36 33 34 36 32 34 37 35 39 39 34 34 34 36 38 37 36
9 5 2 3 6 8 11 13 15 16 18 19 20 21 21 22 26 23 23 26 28 31 35 37 37 37 37 38 32 33 36 36 45 35 36 41 33 43 42 40 37 35 32
6 2 2 4 8 11 13 15 17 19 20 20 21 23 23 22 21 21 23 24 25 30 34 37 41 37 39 35 35 35 42 42 39 41 27 50 41 45 44 41 36 35 36
3 1 3 7 10 13 15 17 19 20 21 20 22 22 22 20 22 23 24 25 27 31 30 34 37 33 36 37 40 42 41 41 43 46 40 45 43 50 43 44 40 37 33
1 2 6 9 12 15 16 18 20 21 20 20 20 21 22 23 23 24 28 31 35 34 30 30 32 33 37 38 37 36 40 44 44 41 32 37 45 45 43 48 42 27 30
2 4 8 11 13 14 19 18 21 22 20 20 18 20 22 24 24 24 29 34 35 36 34 27 29 32 32 31 30 30 36 37 42 43 40 37 35 44 50 49 39 35 39
3 7 11 13 15 15 17 20 21 22 21 19 20 21 20 22 22 26 30 34 38 36 34 35 34 33 28 28 24 25 30 35 41 45 38 32 42 36 33 38 38 42 42

GFSMA_850_spd_051.txt.gz
Wind_Speed
14 13 13 10 10 10 11 7 7 8 8 7 6 7 8 9 11 12 13 12 12 10 11 11 11 10 10 10 11 11 12 13 14 14 15 16 16 18 17 17 17 17 18
16 16 16 12 11 10 8 13 14 10 8 7 7 8 10 11 12 12 12 12 11 9 9 9 10 9 9 10 12 14 15 15 16 19 19 18 17 19 19 19 19 19 18
17 18 15 15 15 16 15 14 14 10 7 6 7 9 9 9 11 12 11 12 10 9 8 8 9 10 11 12 15 16 17 19 19 18 19 19 19 18 19 20 19 19 20
18 21 20 16 19 18 14 12 11 10 8 6 7 8 9 8 9 11 10 10 9 8 8 9 10 13 13 15 14 15 17 19 19 19 18 19 19 19 19 20 21 20 19
24 24 23 20 21 19 14 11 10 10 7 6 7 8 8 8 8 8 8 9 10 11 10 13 14 15 16 15 17 19 19 20 20 20 19 19 19 19 19 19 19 19 19
28 28 25 24 22 19 15 12 12 10 8 6 7 7 7 7 5 6 8 8 7 9 13 17 16 15 16 20 21 20 19 22 23 20 19 19 21 21 21 21 20 21 21
27 29 29 28 25 21 17 14 14 12 8 6 6 7 7 6 6 5 4 8 11 12 16 16 18 19 20 22 22 19 22 23 21 21 21 20 19 21 22 22 23 23 23
32 31 30 29 26 24 20 16 15 13 10 6 6 6 4 7 5 6 9 9 10 14 15 17 19 22 25 24 23 25 22 23 22 21 19 19 22 23 25 25 25 25 26
35 32 31 31 28 24 21 17 16 13 10 7 5 4 4 4 7 7 8 9 12 15 16 18 21 26 26 25 25 24 24 23 24 19 18 22 24 27 27 26 27 27 28
37 34 32 32 29 25 22 19 17 14 10 9 7 7 7 8 5 4 8 12 14 16 19 20 25 23 23 24 23 25 24 25 25 21 22 26 28 28 28 29 29 29 29
40 35 33 31 30 27 22 18 16 13 11 9 8 8 8 8 10 10 14 12 16 20 22 21 22 22 19 19 22 23 24 25 24 24 27 30 30 30 31 31 31 31 31
40 34 33 32 29 26 21 19 16 13 11 9 9 9 9 9 10 11 15 21 25 27 24 23 21 21 19 23 22 25 24 27 26 27 30 32 32 32 31 31 32 32 32
40 34 34 31 29 24 21 19 16 13 10 9 9 9 10 10 12 13 16 19 25 30 31 27 23 23 21 20 21 24 28 32 37 35 33 33 30 32 32 32 32 32 32
39 33 31 30 27 23 21 18 15 11 10 9 9 9 10 11 13 14 16 18 25 27 32 28 29 27 22 27 32 32 33 33 35 30 29 30 31 30 32 33 32 32 34
35 29 31 29 25 22 20 17 13 10 9 8 9 10 11 12 14 15 17 18 20 21 31 28 28 33 35 36 34 33 34 37 30 30 30 31 29 32 32 32 34 30 31
32 32 31 28 23 21 18 13 10 8 8 9 10 11 13 14 15 16 18 19 20 23 26 32 35 37 37 37 37 35 36 33 32 31 30 31 31 32 30 30 31 33 32
34 31 29 25 22 19 14 9 8 7 8 9 11 13 14 16 17 18 20 21 23 24 30 36 36 37 36 35 34 33 31 32 34 34 31 29 29 29 32 33 32 33 34
33 28 25 23 20 16 13 10 8 9 9 10 12 14 15 17 19 20 21 23 24 25 30 37 35 35 36 36 38 33 34 34 35 34 28 28 34 30 33 32 31 32 34
29 26 23 21 17 11 7 5 6 7 9 11 13 15 17 19 21 22 23 24 26 26 27 32 36 35 37 40 38 38 40 40 37 38 33 32 33 30 29 30 32 30 31
28 26 21 17 11 7 6 6 6 8 10 13 15 17 18 20 21 22 23 23 23 26 28 29 33 36 39 36 36 40 42 40 43 42 40 35 30 34 34 32 31 29 29
26 21 17 12 9 7 6 5 7 9 12 13 15 17 18 18 19 20 18 20 23 25 26 29 33 37 35 35 38 38 40 45 44 43 39 30 41 41 37 34 33 30 28
22 17 13 9 7 7 4 6 9 11 13 15 16 17 19 20 21 19 19 18 19 23 27 30 34 36 39 36 39 38 41 44 45 40 31 44 42 42 40 39 36 33 33
18 15 9 7 5 4 5 9 11 13 14 16 18 20 21 20 20 22 23 20 21 23 25 30 37 35 36 37 36 37 37 35 41 46 46 44 42 45 41 40 38 34 28
12 10 7 3 4 5 8 10 12 13 16 18 19 20 21 22 22 19 20 23 25 29 32 32 31 33 31 31 32 34 35 37 41 39 38 40 43 42 43 43 37 25 21
12 7 3 3 5 7 10 11 14 16 17 18 18 18 20 21 20 19 23 26 30 33 33 32 27 26 26 28 25 26 30 33 39 40 38 37 39 46 46 42 32 28 33
6 3 2 4 6 8 10 14 18 20 21 20 21 23 24 22 20 20 24 28 32 34 30 29 31 30 27 24 23 25 28 31 35 38 37 35 41 39 32 33 35 40 37

GFSMA_850_spd_054.txt.gz
Wind_Speed
17 15 13 11 12 13 12 9 8 8 7 8 9 9 9 10 11 12 11 10 10 10 10 10 8 8 8 8 9 9 10 11 13 13 13 14 14 15 16 16 15 15 16
18 15 14 15 14 14 11 11 9 10 10 11 10 10 10 10 11 11 11 9 8 8 7 7 7 7 7 9 11 12 13 13 15 15 16 16 16 15 16 17 16 16 16
19 16 17 18 15 15 14 13 13 13 13 12 10 10 11 10 11 10 10 9 8 7 6 6 6 7 8 9 13 12 14 15 16 15 16 16 16 16 16 16 16 16 16
20 18 21 19 17 16 14 14 14 15 14 12 10 10 10 9 10 10 9 8 7 6 7 6 7 11 10 12 12 12 16 17 17 16 16 17 17 17 16 16 16 15 15
21 23 24 20 18 19 17 17 15 14 13 11 10 10 9 9 9 7 7 7 7 7 7 8 11 10 11 11 13 15 16 17 18 19 19 17 17 17 17 16 17 18 17
25 26 24 24 23 21 21 19 15 14 14 12 10 9 9 9 7 7 6 6 7 8 9 12 10 11 12 14 17 17 17 17 20 21 18 18 17 17 17 17 18 19 20
28 27 27 28 27 25 23 20 17 15 15 13 11 10 10 9 8 7 7 7 9 10 11 12 14 14 16 19 20 19 19 19 18 19 18 18 15 16 18 20 22 22 22
29 29 28 31 30 28 27 23 19 17 17 15 11 10 7 8 11 9 9 10 10 11 13 14 16 18 21 23 21 22 21 19 20 18 16 16 16 19 21 23 23 23 24
34 31 30 30 33 32 28 24 20 19 18 16 13 10 6 6 6 10 11 13 13 14 15 16 19 21 25 23 24 23 22 22 21 17 17 17 20 22 24 25 25 26 27
37 33 33 36 34 32 28 25 22 20 18 17 14 13 12 11 6 5 9 12 14 15 16 18 22 24 23 23 22 22 24 22 21 18 20 21 23 26 27 27 28 29 29
41 35 35 37 36 33 30 28 25 21 19 18 15 12 12 11 12 12 10 11 14 16 20 21 20 22 21 21 21 24 23 23 23 22 23 25 28 29 30 31 30 30 29
42 39 38 38 33 29 31 27 24 21 20 18 15 13 12 11 11 12 13 17 19 21 19 20 19 20 19 22 22 22 23 27 29 28 28 30 31 31 31 30 31 31 32
42 40 40 38 33 28 28 26 24 21 19 17 15 13 12 12 12 13 15 17 21 25 25 23 22 22 21 21 24 28 31 33 33 32 31 30 29 29 30 30 30 31 33
42 41 40 35 31 29 29 27 24 20 18 15 14 12 12 12 13 13 15 16 21 23 27 23 28 25 22 31 33 34 33 33 33 32 30 29 29 29 30 30 32 32 33
42 40 37 32 30 29 28 25 21 19 17 15 12 12 12 12 13 14 15 16 18 17 27 26 27 30 33 35 36 35 34 33 32 30 29 29 28 29 31 31 32 31 30
39 36 33 30 29 27 26 23 20 18 16 13 12 11 12 13 14 15 16 18 19 21 23 29 32 33 34 35 34 33 32 32 29 29 30 27 29 29 28 28 29 30 32
35 34 31 30 29 27 24 20 17 13 11 10 10 14 14 15 16 16 17 19 21 23 29 34 33 31 33 33 34 33 33 29 31 29 28 27 27 27 29 31 29 31 31
33 32 30 29 28 24 21 17 14 11 12 10 11 14 15 16 16 18 19 21 22 23 28 33 32 34 33 34 35 37 31 33 33 30 29 27 28 29 29 29 28 28 30
32 32 31 29 25 21 18 13 9 7 5 10 15 18 17 17 18 20 21 22 24 25 25 29 34 32 34 35 38 37 39 37 35 32 31 31 30 28 26 28 29 31 31
33 31 27 26 22 20 16 11 7 8 12 13 15 19 18 19 19 20 21 22 22 24 26 29 30 33 35 36 38 41 40 38 36 34 36 32 25 28 32 32 32 32 31
32 29 25 21 19 15 11 9 11 8 10 15 16 17 18 18 19 19 20 20 22 24 25 27 30 34 37 40 41 38 39 37 38 37 37 21 38 42 36 36 34 32 29
28 26 23 19 15 9 3 3 5 10 13 13 14 17 18 20 21 20 19 20 19 21 25 28 31 34 39 39 37 34 34 37 40 35 34 45 39 42 40 35 34 33 31
23 20 16 13 10 6 4 9 7 9 11 13 15 18 19 19 20 22 21 18 18 21 23 27 32 35 36 32 30 33 34 36 38 39 41 47 40 41 36 36 37 34 30
18 16 12 8 2 2 5 7 7 8 11 14 16 17 18 20 21 20 18 20 22 24 26 30 32 32 29 29 30 33 36 36 38 37 35 41 39 39 40 41 38 27 20
16 10 6 3 3 3 6 8 9 11 13 15 17 18 21 23 22 18 19 23 27 30 30 28 25 25 26 28 28 28 30 32 39 39 34 32 37 42 45 42 32 26 33
8 6 5 4 2 4 7 9 12 16 18 20 20 22 23 22 18 17 21 25 29 30 24 27 29 29 26 25 23 24 28 31 33 36 31 35 38 37 31 35 32 40 37

GFSMA_850_spd_057.txt.gz
Wind_Speed
17 16 15 13 13 13 13 11 10 9 8 7 8 8 8 8 9 10 10 9 9 10 11 9 8 7 7 8 9 9 10 11 12 12 12 13 14 13 13 14 14 14 14
20 18 16 14 14 14 14 11 10 9 9 9 10 9 10 10 10 10 9 8 7 8 8 8 7 7 7 9 10 11 13 13 13 14 14 15 15 15 14 14 15 15 14
23 19 18 17 15 15 16 14 14 12 12 11 12 11 10 10 10 9 8 7 6 6 6 6 6 6 8 10 12 13 14 15 16 16 15 15 16 16 15 15 14 15 13
24 21 20 17 18 17 17 16 14 14 14 14 13 12 11 10 9 9 8 6 5 5 6 6 6 9 9 10 11 12 14 18 19 18 16 17 17 17 16 15 15 14 14
24 23 21 18 20 19 18 17 15 15 14 15 14 12 11 10 10 9 7 6 6 5 6 6 9 9 10 10 12 14 15 16 18 18 19 19 18 16 17 15 16 16 16
24 23 22 22 23 21 20 20 17 16 16 15 14 13 12 11 11 8 8 7 7 7 7 9 11 10 12 13 14 16 17 17 18 19 17 17 17 16 15 16 16 18 19
25 25 24 24 26 25 22 21 20 20 18 17 16 15 14 13 12 11 10 9 10 9 10 12 12 13 15 17 19 20 20 20 18 17 16 15 16 15 17 18 20 20 20
30 27 27 28 29 28 27 26 24 23 20 19 18 14 9 13 14 14 12 12 12 12 13 14 14 16 18 20 22 21 23 22 20 18 16 15 16 17 19 21 22 22 22
34 33 27 29 31 31 32 31 28 26 23 21 20 15 6 8 7 12 15 15 15 15 15 16 17 19 23 25 24 24 22 22 21 19 16 17 18 20 22 24 25 26 26
38 36 35 30 31 32 34 34 30 28 24 23 21 21 20 16 9 6 12 15 16 17 17 17 19 23 24 23 23 23 23 23 23 20 18 19 21 23 25 27 28 28 29
38 37 38 36 33 34 36 34 32 29 27 24 22 21 19 18 16 16 11 12 15 16 17 19 23 23 23 22 22 24 25 23 24 26 25 24 26 27 28 29 29 28 29
40 38 41 40 36 35 38 36 32 29 27 24 22 22 20 17 14 16 15 16 16 17 19 20 23 22 22 21 24 23 23 30 30 32 31 27 28 28 28 28 29 29 31
42 41 41 42 39 37 38 33 31 30 27 25 23 21 19 18 15 16 16 17 18 20 20 20 20 20 23 22 21 29 32 33 33 33 32 29 29 28 28 28 28 29 29
44 42 41 42 39 36 33 31 29 29 27 23 20 18 16 16 14 14 16 16 18 20 23 22 22 21 21 26 31 33 33 33 33 33 32 31 28 27 27 27 29 30 30
39 39 38 39 37 33 31 29 30 28 25 21 19 16 13 13 14 13 15 17 18 18 25 23 22 22 29 32 33 34 34 33 32 30 29 28 27 27 27 28 29 28 29
38 38 38 36 32 30 29 30 28 25 22 19 16 13 13 12 13 16 18 19 20 20 23 25 29 30 31 33 32 33 33 32 31 28 29 28 26 26 27 27 28 28 30
33 34 33 31 29 31 31 29 26 23 21 18 14 12 13 14 14 16 18 19 19 22 28 33 32 31 31 33 33 32 33 33 32 30 28 27 25 25 26 27 28 28 29
30 28 26 29 32 31 29 25 23 20 18 17 13 13 11 13 18 20 20 21 22 22 28 33 33 32 33 32 33 34 34 33 32 28 27 26 25 26 26 26 27 26 27
25 24 29 31 30 26 23 20 18 16 14 12 12 13 15 16 18 19 21 23 23 24 27 31 33 34 33 33 35 36 37 36 33 28 27 28 27 23 22 24 27 29 30
25 28 29 27 23 22 20 16 12 10 10 12 13 13 15 16 19 21 22 23 24 26 26 29 32 32 33 35 36 39 41 37 33 29 30 28 24 26 30 29 30 31 31
24 24 25 26 22 18 15 12 11 12 11 10 13 13 15 17 20 22 23 23 23 24 26 27 30 34 36 37 38 39 38 35 35 32 32 30 33 36 35 34 32 31 30
23 26 24 21 20 18 14 11 7 6 7 10 14 15 18 20 21 21 20 21 21 21 23 27 30 33 36 37 37 34 33 35 37 33 38 43 38 40 37 34 31 31 32
26 23 22 19 15 12 9 4 2 7 11 13 16 17 19 19 19 20 21 20 18 20 21 25 31 33 36 33 30 33 32 35 36 40 37 48 42 41 34 32 30 32 29
22 20 16 12 7 5 2 2 6 8 11 12 15 17 18 19 21 21 21 20 21 24 26 28 30 31 29 28 30 33 36 39 39 37 33 47 41 39 38 38 34 28 24
21 17 12 8 6 3 2 4 8 9 11 14 14 17 20 23 22 20 19 21 26 29 28 26 24 25 27 28 28 31 33 32 40 41 35 32 40 43 45 42 31 29 35
14 10 8 7 5 2 4 6 8 12 14 17 18 20 21 21 20 16 19 24 29 26 20 25 25 25 24 26 25 25 27 32 35 37 25 34 40 36 33 36 28 42 39

GFSMA_850_spd_060.txt.gz
Wind_Speed
17 15 16 15 13 12 12 11 11 10 9 7 7 7 8 7 8 8 8 8 8 10 10 7 6 5 5 6 7 8 9 10 11 11 10 11 11 12 12 13 13 13 13
19 17 16 16 15 14 14 13 11 10 10 8 7 8 9 9 9 9 8 8 8 8 8 6 4 4 5 7 9 10 12 11 12 13 13 13 14 13 13 13 14 14 13
21 20 18 18 14 14 15 15 14 13 12 10 9 9 10 10 11 10 8 8 8 7 6 6 5 4 5 8 9 11 13 12 14 15 15 15 15 15 15 15 14 14 14
24 23 22 20 17 17 17 17 16 15 14 13 11 11 12 11 11 10 9 8 7 6 6 7 6 6 8 7 9 9 12 15 17 17 16 16 16 16 15 14 14 13 13
23 25 24 20 19 20 19 20 18 17 15 14 14 14 14 12 12 10 9 9 8 8 8 8 7 9 9 8 9 11 13 15 17 18 18 18 17 16 14 13 13 13 14
22 23 24 23 23 23 23 22 21 19 17 16 16 15 14 14 13 12 11 11 10 10 10 10 10 10 10 11 12 14 16 16 17 18 18 16 15 14 14 12 13 15 16
26 22 24 25 27 26 25 23 23 22 21 19 17 17 16 16 15 14 13 13 12 12 13 13 12 12 13 14 16 17 19 18 19 19 17 15 14 14 14 15 16 17 18
28 27 27 28 28 27 27 28 26 25 24 21 20 18 13 16 18 18 17 15 15 15 15 16 15 15 17 18 20 21 20 21 20 19 17 14 14 15 16 18 19 20 21
34 31 32 29 28 28 29 30 31 28 27 24 22 18 8 10 11 16 18 18 17 17 18 18 18 18 20 22 24 22 21 21 20 19 16 15 16 18 20 20 22 23 25
36 35 34 32 32 30 31 32 32 32 30 28 24 25 25 18 9 8 16 19 19 19 19 19 20 21 22 25 23 23 23 22 22 23 22 20 22 22 23 24 26 26 26
39 38 35 35 34 35 34 33 33 34 33 30 29 28 25 24 23 20 12 16 17 18 19 20 22 23 25 24 24 23 24 25 24 26 29 27 25 24 25 26 27 26 27
42 42 39 36 36 36 37 35 34 35 33 32 31 28 27 24 23 21 20 18 15 16 19 21 23 24 25 24 23 26 25 25 31 31 32 31 27 26 27 27 26 27 27
43 44 41 41 39 38 39 37 36 36 34 33 31 29 28 24 22 20 17 17 17 17 18 19 21 22 23 23 26 25 30 32 33 33 32 31 28 28 26 26 26 26 27
35 40 44 44 41 39 39 37 35 33 32 31 30 29 28 23 19 17 17 17 15 17 20 19 18 20 22 22 27 32 33 32 33 33 33 32 31 30 27 26 26 26 27
35 35 39 42 42 39 37 34 31 31 31 31 29 28 23 21 19 16 15 15 14 13 20 20 18 20 22 29 31 33 33 33 33 33 32 31 29 27 26 26 26 27 27
33 35 34 36 38 37 31 28 27 29 30 28 26 22 20 17 16 16 14 16 17 19 19 21 23 25 27 30 31 33 33 33 33 33 32 31 27 25 26 26 26 27 27
30 32 31 31 31 29 26 25 27 28 27 23 20 17 15 13 13 15 14 15 17 21 26 27 27 26 29 30 32 33 33 34 35 33 31 30 27 25 25 26 26 26 27
28 28 27 26 25 25 26 27 27 24 20 19 17 16 15 13 13 12 16 17 19 21 25 28 29 30 31 31 33 34 34 34 34 32 29 27 26 26 25 25 25 25 25
21 23 22 23 23 26 27 25 23 22 18 17 15 13 11 10 10 12 18 20 20 22 24 27 30 31 33 32 34 35 36 36 34 30 26 27 27 24 23 23 24 27 29
21 22 23 24 24 25 25 23 19 17 16 12 9 11 10 12 13 13 19 19 20 22 25 27 29 31 32 33 34 36 40 37 34 30 28 27 25 25 26 28 30 29 30
21 23 24 24 24 22 19 19 16 12 9 8 8 9 10 11 13 16 18 20 22 23 25 27 29 31 33 34 34 37 38 35 35 34 31 32 33 33 30 31 31 29 28
20 21 23 22 21 18 15 13 12 8 6 7 7 8 10 14 16 17 17 18 20 22 23 25 27 30 33 35 35 33 32 35 38 35 37 41 36 39 37 32 29 28 27
20 20 20 19 17 14 11 7 5 4 4 5 7 10 12 14 17 19 20 22 21 19 18 21 27 30 33 31 28 30 32 35 38 40 39 46 41 42 35 33 31 28 28
21 19 17 15 14 13 9 4 3 0 2 6 10 12 15 17 19 20 20 19 19 21 22 25 27 28 25 24 27 30 34 37 38 37 32 44 41 39 39 40 35 24 21
19 19 16 12 10 7 6 4 2 3 5 8 12 15 18 19 19 19 17 19 24 25 23 21 20 21 22 23 24 28 30 31 38 38 36 25 41 43 46 41 30 28 34
17 14 12 10 8 5 4 3 6 7 10 12 15 17 17 18 17 14 18 23 25 21 19 19 17 18 20 22 21 22 26 29 32 37 28 32 40 36 35 35 27 41 40

GFSMA_850_spd_066.txt.gz
Wind_Speed
16 14 13 14 14 13 12 12 11 12 11 10 10 9 9 9 9 8 6 8 11 11 10 9 6 5 4 3 4 4 5 5 5 6 7 7 8 8 9 10 10 11 11
17 16 15 15 15 16 14 13 13 13 13 12 12 11 10 10 10 10 6 7 10 12 12 9 7 6 6 5 6 6 5 4 5 7 8 8 9 9 10 10 11 11 11
19 18 16 16 17 17 17 16 16 16 16 15 14 13 12 12 12 11 10 8 10 12 13 11 9 8 8 7 8 8 7 8 8 10 10 10 10 10 11 11 12 12 12
21 22 21 18 16 18 19 18 19 19 18 16 16 15 14 14 13 13 12 12 12 11 12 12 11 10 9 9 8 8 9 8 10 12 13 13 13 13 13 12 12 12 11
23 24 23 21 20 20 20 21 21 21 21 19 19 18 16 15 16 16 14 14 15 14 13 13 13 12 11 11 10 10 10 11 12 14 14 14 15 14 14 13 12 11 12
25 25 25 24 23 23 25 24 25 24 23 22 21 20 19 18 18 18 17 17 17 17 16 16 15 15 14 13 12 12 13 13 14 15 14 15 15 15 13 13 13 12 13
27 28 28 27 27 29 28 28 27 27 27 27 23 23 22 21 21 21 21 20 20 19 19 19 18 17 17 16 15 15 16 15 16 15 16 16 17 16 14 14 15 15 15
31 32 30 30 29 30 30 30 32 32 31 31 27 15 10 18 25 25 24 24 23 23 22 22 21 20 19 19 19 18 18 17 17 17 17 17 17 17 16 16 17 18 19
38 35 33 32 32 31 33 35 36 36 36 34 33 20 10 12 13 22 27 27 26 26 24 24 24 23 22 22 21 21 20 20 19 19 19 20 21 20 19 18 20 21 22
37 39 37 36 36 34 35 36 37 38 38 39 36 37 32 15 9 7 18 24 26 27 27 26 26 26 24 24 23 22 22 22 22 22 22 22 23 22 22 20 21 22 23
37 35 39 38 39 39 38 39 40 40 42 42 41 39 39 37 33 25 13 20 25 27 28 28 27 27 26 25 24 25 24 25 24 24 24 23 27 28 25 23 24 24 25
39 38 39 39 39 42 40 41 42 42 41 44 43 43 42 39 37 36 33 25 22 23 28 28 27 27 27 25 25 25 25 26 26 27 27 30 30 30 29 28 27 25 25
32 33 34 36 37 40 43 43 42 43 43 45 43 44 42 41 37 34 32 30 27 26 25 25 25 25 27 25 24 25 26 26 27 30 31 31 32 33 34 33 31 28 27
29 29 29 30 31 32 36 40 43 43 43 43 45 45 43 40 38 34 29 29 28 25 23 24 23 22 24 22 22 23 26 31 33 32 32 33 33 33 33 33 31 29 27
22 24 25 27 28 29 30 34 41 42 43 42 41 39 40 39 37 35 32 28 26 21 21 20 17 17 18 20 23 25 31 34 35 34 33 34 33 34 34 32 29 28 27
24 24 25 26 26 26 29 30 33 38 38 35 34 35 38 33 33 31 27 24 22 17 14 16 19 23 24 24 23 29 31 33 33 34 33 31 33 33 32 29 26 25 26
24 25 26 27 26 24 24 26 28 31 31 31 31 33 31 27 23 20 17 17 17 15 17 21 22 20 18 20 26 28 29 31 29 31 31 30 30 29 26 25 25 25 25
24 25 26 24 23 22 21 22 25 27 27 27 26 25 23 21 17 15 16 18 17 17 17 18 20 17 18 23 27 28 26 27 28 29 27 26 23 24 24 25 25 24 25
20 20 19 20 18 19 19 21 23 25 23 20 20 17 16 15 14 15 15 15 15 16 15 15 18 18 21 20 22 22 23 24 23 25 23 22 20 21 23 23 25 26 27
11 11 13 13 15 17 17 20 22 22 20 17 15 13 12 12 13 13 12 13 11 11 14 15 14 13 16 16 18 18 19 19 20 21 22 19 21 22 22 23 23 25 27
9 9 11 12 14 15 15 16 17 17 16 16 13 11 10 11 12 12 8 8 9 12 13 14 13 12 13 13 15 17 18 18 20 21 17 17 20 24 25 25 26 26 26
3 3 5 8 12 15 15 14 13 13 12 10 9 8 8 7 5 5 5 7 11 12 13 12 13 13 14 15 15 15 17 19 22 19 14 24 23 25 26 25 26 26 26
5 9 13 14 14 13 12 11 11 11 9 8 6 3 1 4 6 8 9 11 12 13 14 13 14 15 15 13 16 18 17 20 23 22 22 26 24 25 23 25 28 28 24
13 14 12 11 12 13 11 11 9 7 6 4 2 1 3 6 9 10 9 11 13 13 13 14 14 14 13 13 15 17 19 20 21 22 19 26 24 24 24 27 31 25 20
15 14 12 11 10 10 8 9 7 5 3 1 2 4 6 8 8 9 9 13 12 13 13 12 12 12 12 14 15 18 19 18 23 26 24 21 23 25 32 33 27 27 32
14 13 11 9 9 10 8 5 4 3 3 4 6 7 8 8 8 8 9 11 11 9 9 8 9 11 13 13 14 15 18 21 23 27 17 23 32 26 21 30 24 33 31

GFSMA_850_spd_069.txt.gz
Wind_Speed
12 11 12 12 12 11 12 11 11 11 10 9 9 9 9 7 8 8 8 11 11 10 10 10 8 6 5 4 3 2 3 3 3 4 5 6 6 6 7 8 8 9 9
15 15 13 13 13 13 13 13 13 12 11 11 11 10 10 11 10 10 6 13 12 11 11 11 9 7 6 6 4 5 3 3 3 4 5 6 6 6 7 8 9 10 10
18 16 16 16 17 14 14 14 14 13 13 12 12 12 12 11 12 12 11 10 11 13 13 13 10 9 8 7 7 6 5 4 5 5 6 7 8 8 9 9 10 10 10
20 19 18 17 16 17 16 16 15 16 15 15 14 15 15 15 13 12 13 13 13 12 12 14 12 10 10 10 10 8 7 7 8 9 10 10 10 11 11 11 10 10 10
21 21 20 19 19 21 20 18 18 18 17 17 16 17 17 17 16 15 15 15 16 15 15 13 13 12 12 12 11 11 10 9 10 11 12 12 13 13 13 12 12 11 10
22 23 22 21 21 22 24 21 21 21 19 19 17 18 19 20 19 19 19 18 18 17 18 20 15 15 15 15 14 13 13 12 12 13 13 13 13 14 14 13 12 12 12
23 25 26 23 24 25 28 28 24 24 24 20 18 21 21 23 23 22 21 21 21 20 19 21 19 18 17 17 17 17 16 15 15 16 15 14 15 16 15 13 13 13 14
30 30 28 29 28 29 27 28 29 28 27 28 28 20 12 21 27 27 25 24 23 23 21 22 22 20 20 19 21 18 19 18 17 17 17 17 17 18 18 18 16 17 17
35 35 34 34 32 31 32 32 31 34 34 33 33 23 10 13 13 19 27 27 24 25 24 24 24 23 23 22 24 21 21 19 20 19 19 20 20 21 21 21 20 19 19
38 37 38 38 35 34 35 36 35 36 36 37 34 35 30 16 10 9 17 24 24 25 26 24 25 25 25 24 25 25 23 21 21 21 22 21 22 23 22 23 21 20 21
33 34 36 36 38 37 38 39 38 40 42 39 40 38 39 38 29 19 12 17 21 24 27 27 26 26 27 27 27 26 23 23 23 23 23 23 24 24 26 24 23 22 23
28 33 33 34 33 38 38 40 41 42 44 42 43 42 42 42 45 42 31 23 23 25 25 28 27 29 28 25 27 28 23 24 24 23 25 26 27 28 28 28 29 28 27
28 27 29 30 30 31 35 38 39 42 45 44 45 45 45 43 43 40 36 34 26 26 23 25 26 27 27 26 27 25 25 26 28 27 27 29 32 32 33 33 33 30 29
20 24 27 27 26 26 28 32 35 37 41 42 40 43 45 46 45 41 37 34 32 27 25 22 21 26 26 25 24 26 25 26 28 30 30 31 33 34 33 34 34 32 30
21 23 23 24 23 23 24 25 30 34 38 38 36 39 43 43 40 39 43 38 27 20 21 23 21 23 23 23 26 30 30 30 32 32 31 33 34 34 35 36 34 31 29
17 21 21 24 25 24 23 23 25 28 30 33 36 35 36 37 38 38 32 30 25 19 16 12 15 18 21 25 26 27 29 29 28 30 31 32 33 33 33 30 28 25 24
18 19 21 23 24 25 23 22 22 24 26 28 30 31 30 30 30 25 22 16 14 14 12 20 18 19 22 23 24 25 24 25 28 30 30 30 31 29 27 26 25 25 24
16 18 20 22 23 22 21 19 20 22 23 25 25 25 24 21 17 14 11 11 9 13 15 17 17 18 20 21 18 22 24 25 27 28 28 26 25 23 25 24 24 25 24
14 16 17 18 17 15 16 17 19 19 19 20 18 17 16 14 9 7 6 13 11 12 13 14 15 16 16 15 17 19 22 22 22 23 23 23 22 22 22 23 23 24 24
12 11 11 12 12 13 13 14 13 13 14 13 12 10 10 10 9 9 10 11 10 10 11 11 10 11 13 15 17 18 17 19 24 21 22 21 20 20 22 23 23 25 25
6 6 7 7 7 7 5 5 5 8 9 10 9 8 9 8 8 8 8 8 8 7 7 9 11 10 12 13 11 15 20 20 22 23 19 17 19 24 25 24 26 25 23
6 6 5 3 1 3 7 8 6 7 7 6 6 9 8 7 7 6 4 7 8 8 9 10 12 13 11 11 14 17 18 23 25 18 18 23 24 27 25 25 24 24 25
8 9 9 7 7 9 8 8 8 6 8 7 6 4 2 2 2 3 5 7 9 8 9 12 13 12 14 13 17 19 18 18 22 23 22 28 27 29 27 27 26 27 25
12 13 12 9 9 10 7 6 5 2 2 2 3 4 3 4 5 6 6 8 9 10 10 11 12 13 12 12 13 16 18 21 22 21 19 29 27 28 30 33 30 23 20
14 14 13 11 9 9 6 5 6 5 3 1 1 3 5 7 7 7 7 9 9 8 10 12 10 10 10 12 14 16 16 17 22 25 23 19 27 30 34 32 27 24 29
13 11 10 10 10 9 8 6 5 7 6 6 6 8 7 8 9 10 9 8 10 8 8 8 8 9 10 12 12 13 14 17 20 26 16 24 30 30 25 35 33 34 31

GFSMA_850_spd_072.txt.gz
Wind_Speed
15 10 9 9 10 9 9 7 8 5 8 12 12 10 11 14 13 15 13 11 10 10 9 8 7 6 4 3 1 1 2 2 2 2 3 4 5 5 6 7 7 7 7
16 11 12 13 10 11 10 13 11 13 16 12 13 15 17 17 15 13 14 13 12 11 11 10 8 7 5 4 3 2 2 1 2 2 4 4 4 5 6 7 8 9 9
17 16 16 16 16 15 16 17 15 16 18 15 17 17 18 16 15 14 16 16 15 12 12 12 10 8 7 7 6 4 4 3 3 3 4 5 6 7 7 8 9 9 10
21 20 19 21 20 19 18 18 19 20 20 20 20 20 19 18 17 15 15 18 16 15 12 13 12 11 10 10 9 7 6 6 5 5 6 6 6 7 7 8 9 9 9
20 21 21 21 21 19 19 20 22 23 24 23 23 21 22 22 19 18 17 17 20 19 15 14 13 13 13 12 12 12 10 8 8 8 9 9 10 11 11 11 11 11 10
19 21 22 22 22 24 24 24 24 24 26 23 23 21 24 23 22 21 21 19 21 23 21 19 16 15 15 16 15 15 14 11 11 10 10 11 12 13 13 13 12 11 11
23 23 25 25 25 26 28 28 26 26 27 25 22 23 24 26 26 25 24 23 24 24 24 24 22 20 19 20 19 18 18 15 14 13 13 12 12 14 14 14 15 14 13
26 27 27 28 29 29 30 29 30 29 29 29 27 24 23 28 30 29 28 27 26 26 25 26 26 24 22 21 21 22 20 19 17 17 16 15 15 15 15 16 17 15 15
31 31 31 31 32 30 32 34 32 32 33 33 34 28 12 16 16 22 26 30 29 30 28 26 28 28 26 26 24 23 21 21 19 19 18 18 17 17 17 18 19 17 17
31 35 34 36 36 35 34 33 34 35 34 36 35 38 33 16 13 11 19 23 28 32 32 31 28 29 28 28 27 25 23 21 19 19 19 19 20 19 19 20 21 21 19
30 29 27 32 35 35 35 34 35 36 37 37 40 39 38 37 26 22 20 23 26 29 31 32 30 30 29 30 29 26 25 23 22 21 21 21 21 20 22 20 21 23 24
21 23 24 26 25 34 34 33 35 37 39 40 41 44 43 40 43 37 27 24 24 25 29 30 30 30 30 31 30 28 25 23 23 23 22 20 22 24 24 27 27 27 28
22 23 22 25 24 23 26 29 33 36 38 40 42 45 46 42 40 40 39 34 24 26 31 33 30 31 30 29 27 30 31 30 27 27 27 28 27 26 28 28 28 28 28
16 19 21 23 23 23 24 23 25 32 35 37 39 42 43 43 41 42 40 36 34 28 30 32 38 36 30 28 30 29 29 28 29 31 30 29 28 29 28 29 30 30 29
24 23 23 25 23 20 19 19 20 23 24 29 33 37 39 41 40 39 38 38 36 25 27 26 24 25 22 24 28 25 25 26 29 29 27 27 26 27 28 29 28 28 28
20 21 22 21 20 21 20 19 18 20 22 24 28 30 32 34 37 37 34 32 28 25 20 16 16 17 17 19 19 22 24 25 25 23 23 25 27 27 26 26 26 25 23
15 16 18 18 17 17 17 17 16 17 19 21 22 24 27 29 30 29 26 23 19 17 15 16 14 14 17 17 19 20 20 21 22 23 24 24 24 24 23 23 22 23 22
12 12 13 14 16 16 16 17 16 14 17 19 20 21 22 23 22 19 15 11 10 10 9 11 10 14 13 14 15 16 17 17 18 19 19 18 19 19 20 20 20 21 20
9 10 12 14 13 13 12 12 13 14 16 17 18 16 14 13 12 9 6 6 6 6 6 10 10 8 9 10 10 12 13 14 15 17 20 19 18 18 17 18 17 20 21
10 10 10 9 8 8 9 10 10 9 8 8 7 6 6 6 4 3 4 7 7 7 6 6 6 6 7 8 10 12 13 15 19 18 16 17 15 14 15 18 20 21 22
1 2 4 6 5 5 5 3 3 2 1 2 3 4 3 3 6 5 5 4 4 3 5 7 6 6 6 8 9 11 16 19 17 18 12 12 17 16 16 18 20 20 19
6 6 7 7 7 9 10 8 6 5 5 5 5 5 5 5 5 4 4 4 6 5 6 7 8 7 6 6 10 15 17 18 20 12 21 15 19 20 19 19 20 19 21
12 13 14 12 13 12 10 8 7 4 3 2 2 2 4 3 5 4 5 6 7 6 7 8 8 8 10 11 13 13 13 14 16 18 21 23 23 23 21 22 22 23 20
16 16 15 13 10 11 9 8 7 4 2 0 1 4 4 1 3 3 6 7 7 8 7 7 9 9 9 9 10 12 15 17 17 17 18 28 23 26 27 27 24 16 16
16 16 15 12 10 10 7 6 4 4 4 4 4 4 5 5 6 8 7 8 8 8 8 9 5 5 5 6 9 12 12 15 20 21 19 21 30 34 33 29 20 23 22
14 13 12 11 10 8 7 5 5 5 5 6 7 7 6 7 9 9 9 9 9 8 7 6 5 5 6 7 8 11 12 15 18 23 18 28 32 31 33 33 34 31 27

GFSMA_850_spd_075.txt.gz
Wind_Speed
10 10 10 11 10 11 10 10 10 11 12 11 10 10 12 13 17 17 15 14 11 11 10 8 7 6 5 4 4 4 2 2 2 2 1 1 2 3 3 3 4 4 5
12 13 12 11 9 9 9 9 9 11 11 11 13 15 15 18 18 18 18 17 14 12 12 11 10 8 7 6 6 5 4 4 3 2 1 1 1 2 3 4 4 5 5
17 15 14 12 11 11 9 11 10 12 12 14 16 17 20 21 21 20 20 18 16 14 14 14 12 10 10 9 8 7 6 6 5 4 3 3 3 3 3 4 4 5 5
22 19 17 16 15 14 14 16 17 17 18 21 20 20 21 22 22 22 20 21 19 17 15 15 15 13 13 12 11 10 9 8 8 7 6 5 5 5 5 6 6 7 7
21 22 21 20 20 20 20 18 20 21 23 23 23 22 24 25 25 23 22 21 22 21 18 17 17 16 15 15 14 13 11 10 10 10 8 8 7 6 6 7 8 8 8
17 19 22 23 23 24 24 23 22 22 24 25 25 25 25 27 27 27 26 25 24 24 22 21 20 19 17 18 18 17 16 13 13 12 11 10 9 9 9 9 8 8 8
20 20 20 22 24 25 25 25 25 24 25 25 25 27 28 28 30 31 30 29 29 27 27 26 23 22 21 20 21 21 20 18 15 14 13 12 11 11 11 11 11 10 9
26 25 25 24 24 26 27 27 29 30 29 27 28 28 26 31 36 36 34 33 33 31 31 30 28 27 25 23 24 25 24 22 19 17 17 15 14 13 13 14 15 14 13
29 29 29 30 29 29 30 30 30 33 33 34 33 28 14 21 23 27 33 36 36 35 35 33 31 29 29 27 26 27 25 24 24 21 20 18 16 16 15 15 14 13 13
31 34 33 33 31 33 34 33 34 34 35 36 37 39 39 29 18 13 21 25 31 34 35 34 32 30 30 30 28 26 24 23 23 21 21 20 19 18 17 16 15 14 14
22 21 21 22 25 34 33 33 34 35 32 36 38 39 42 43 42 33 28 26 23 27 32 32 32 33 32 31 29 26 26 23 23 21 20 21 20 20 19 19 16 18 19
20 21 20 17 17 18 27 31 33 36 35 35 37 38 43 42 41 45 37 36 28 27 32 34 32 31 32 32 33 30 28 24 24 23 25 26 26 19 22 23 22 22 23
19 20 21 21 21 20 19 21 26 31 34 33 36 38 37 44 44 39 35 36 35 34 30 34 35 36 36 37 35 37 32 28 37 33 27 28 19 25 28 28 28 26 23
22 24 22 21 18 18 20 20 21 22 23 27 31 35 35 37 37 40 39 38 33 29 30 32 37 40 39 39 32 33 35 30 27 30 28 24 26 28 27 25 25 23 23
25 23 21 19 18 20 22 22 20 19 21 23 25 26 29 32 36 37 35 35 34 27 29 33 32 31 31 33 31 32 33 26 24 23 21 25 25 23 24 24 24 23 23
24 24 24 24 25 25 25 19 19 19 19 19 20 22 24 25 26 27 27 29 27 28 27 21 20 24 20 21 26 25 23 20 17 20 20 21 23 22 23 23 24 22 20
17 18 19 19 19 19 18 17 17 17 17 15 15 18 21 24 25 25 24 23 21 19 20 20 19 18 17 15 17 15 15 15 18 20 19 20 20 21 20 19 18 17 17
14 14 14 14 14 15 15 15 15 14 14 14 14 16 18 20 20 18 18 16 13 12 12 12 13 13 11 11 10 11 14 16 16 16 17 16 16 17 17 16 16 16 16
8 8 9 11 11 11 12 12 9 8 10 12 13 14 15 14 12 9 7 6 6 7 7 8 8 8 7 9 10 9 11 12 13 13 13 14 15 15 16 14 13 15 18
8 7 7 6 6 6 8 6 5 5 7 7 7 6 6 5 5 4 3 6 6 6 6 4 8 9 8 9 10 9 9 10 12 13 12 13 10 11 12 13 16 18 18
3 3 2 3 2 1 1 2 2 2 2 1 1 2 2 3 4 4 5 5 6 5 4 5 10 8 8 7 8 9 10 12 13 10 7 8 9 10 10 14 16 16 15
3 3 2 5 7 8 11 10 9 7 7 5 3 1 1 3 5 7 7 7 4 3 5 7 9 8 8 7 8 10 12 13 11 7 12 9 10 10 11 13 14 15 16
7 9 12 12 12 14 12 12 11 8 6 5 3 1 2 3 5 6 3 2 3 6 7 7 8 9 9 10 10 10 9 10 12 12 13 15 13 12 15 16 17 15 10
13 14 14 12 12 14 12 11 9 6 4 2 1 1 2 3 4 3 5 6 7 6 6 7 8 9 9 9 8 9 10 11 11 12 13 20 16 19 19 19 13 7 12
14 14 13 11 10 11 9 7 6 4 3 2 3 4 4 5 5 7 6 7 7 7 8 9 7 5 6 6 8 9 9 11 13 14 10 17 24 27 26 19 9 15 17
12 11 11 10 9 7 5 4 3 4 5 5 6 6 6 7 9 9 8 8 8 7 7 7 6 6 6 7 8 9 10 11 14 14 10 23 26 27 25 21 28 22 22

GFSMA_850_spd_078.txt.gz
Wind_Speed
13 10 8 9 9 11 10 11 11 12 13 13 13 12 14 15 14 14 13 15 14 14 14 13 10 9 8 8 7 7 6 5 5 4 3 3 2 1 1 1 1 1 2
10 11 8 8 9 9 9 10 11 11 12 14 14 14 14 16 16 17 17 18 18 16 16 15 14 12 10 10 9 8 8 7 6 5 4 4 3 2 1 1 2 2 2
10 10 9 10 11 9 9 10 12 13 14 15 16 14 16 17 19 20 22 22 21 19 17 17 17 15 13 12 11 11 10 9 9 8 7 6 5 4 3 2 2 2 3
13 13 13 14 12 12 11 12 12 15 16 17 17 16 19 21 22 24 25 25 24 22 20 18 18 18 17 15 14 13 13 12 11 10 9 9 7 6 5 5 4 3 3
16 16 17 16 15 15 16 15 15 17 20 20 20 20 22 24 25 26 27 26 26 25 22 21 20 20 20 18 17 16 15 14 14 13 11 10 10 9 8 8 7 6 5
19 19 19 20 19 20 21 21 21 21 22 23 23 24 25 26 27 29 30 29 28 28 26 23 23 22 22 21 20 18 18 17 15 14 13 12 11 12 11 10 9 8 7
21 21 20 21 23 24 24 24 25 25 25 23 24 27 29 30 31 33 33 33 33 31 30 28 26 26 25 23 22 22 20 20 18 16 16 15 14 12 11 10 10 10 9
24 23 23 23 23 24 25 26 28 29 29 27 28 29 29 31 35 36 36 36 36 34 34 32 31 31 28 26 25 24 24 19 18 18 18 17 15 15 13 13 12 11 10
27 27 27 28 28 27 27 27 28 30 32 31 32 30 13 19 23 24 24 29 35 36 36 35 35 34 32 29 26 26 26 27 24 19 14 15 15 15 14 13 11 10 11
29 31 31 30 30 31 33 33 33 34 33 36 36 35 38 38 21 20 24 18 19 30 33 36 37 35 32 29 26 27 28 26 24 20 12 8 8 10 10 11 12 12 12
24 25 25 26 27 29 32 35 36 36 35 36 37 34 35 38 41 41 35 33 29 24 27 33 37 38 40 34 25 29 28 30 31 30 29 18 14 13 11 12 14 14 16
25 20 21 21 21 22 21 21 25 26 30 30 32 32 31 32 33 37 41 46 45 40 38 35 37 39 37 34 34 38 40 33 34 34 28 31 30 32 28 24 21 18 19
24 22 22 21 20 18 18 19 17 20 24 29 31 31 32 31 34 36 38 39 40 36 34 34 33 36 38 38 37 37 34 35 33 30 26 28 22 24 24 21 22 20 17
23 23 23 22 21 19 20 20 20 20 22 23 24 25 26 27 27 27 29 35 36 34 31 32 33 32 33 34 32 31 33 37 31 30 29 24 22 22 22 22 24 20 19
22 20 20 21 21 18 19 18 21 23 21 19 20 22 23 22 24 24 27 29 32 27 28 28 28 25 28 28 30 33 34 31 28 28 26 25 21 21 21 20 18 19 19
19 20 20 21 22 22 23 25 24 22 20 18 20 21 22 21 22 21 23 21 22 24 26 23 20 21 21 22 26 32 29 24 24 22 20 19 19 20 19 21 23 21 21
16 17 19 19 19 18 19 21 20 18 17 16 16 16 16 17 17 20 21 21 20 19 20 21 18 16 17 18 18 19 18 17 17 18 18 17 16 17 19 18 18 18 17
14 14 14 14 15 15 14 14 14 14 14 13 12 11 11 13 15 18 19 17 15 14 13 14 12 8 9 10 12 13 12 13 13 13 12 13 15 16 18 18 18 18 16
8 9 9 10 11 11 11 11 11 10 8 6 7 8 10 11 11 11 12 11 10 10 10 9 9 7 8 10 11 11 10 11 12 11 12 15 15 15 15 14 14 15 17
8 8 9 9 9 8 7 7 6 6 5 4 4 6 5 5 5 5 6 7 7 7 8 8 9 8 9 8 8 9 9 11 11 12 13 11 10 10 11 13 15 17 18
7 6 6 6 5 4 4 3 2 3 2 1 1 1 1 1 3 4 4 5 7 8 8 7 7 6 7 8 9 10 9 10 11 10 8 6 9 10 12 14 16 17 17
5 5 5 4 5 5 6 7 7 5 4 4 2 1 1 1 2 3 5 7 7 6 6 7 8 8 10 10 10 10 11 11 6 6 9 5 11 10 13 13 14 16 18
7 7 9 9 10 12 12 11 10 6 4 3 2 1 2 3 4 6 6 6 6 6 6 7 9 10 10 11 11 10 9 9 9 7 13 9 9 9 13 15 17 17 14
11 13 13 12 12 13 11 9 8 4 2 1 2 3 3 4 6 6 6 7 7 8 9 10 9 10 10 11 10 9 9 10 10 8 10 17 10 13 15 15 13 8 9
14 14 13 12 10 9 8 6 4 2 2 2 4 5 6 7 8 8 8 8 9 9 10 11 9 8 8 7 8 9 9 11 12 10 13 11 16 19 18 11 4 5 14
13 13 12 10 7 5 4 2 3 4 5 5 6 7 8 8 9 9 8 8 8 9 9 9 8 8 7 8 9 11 12 13 13 12 7 16 19 20 15 11 15 17 16

GFSMA_850_spd_081.txt.gz
Wind_Speed
11 10 9 8 8 9 9 9 10 11 10 11 11 12 14 15 15 14 13 13 13 15 17 16 14 13 12 11 9 8 7 7 6 6 5 4 4 3 2 2 1 2 3
11 11 9 8 8 8 9 10 10 11 11 12 13 14 14 16 17 17 15 15 16 16 18 18 17 15 14 13 11 10 10 9 9 8 7 7 6 5 4 3 3 2 2
9 9 11 9 7 8 8 9 10 12 12 13 14 15 15 17 18 19 18 19 19 20 21 20 20 18 16 15 14 12 12 11 11 10 10 9 8 7 6 6 5 4 3
11 10 11 11 7 9 11 11 10 11 13 14 15 16 18 18 18 20 21 22 23 23 23 21 20 20 19 18 16 15 14 14 13 12 11 11 10 9 9 8 7 6 5
14 14 13 12 11 12 14 14 13 14 14 15 16 17 18 20 21 22 24 25 25 26 25 22 22 21 21 20 18 14 15 16 15 13 12 11 11 11 11 10 9 7 5
16 17 16 15 15 17 18 18 18 17 18 18 19 21 22 23 24 26 27 27 28 29 27 26 24 23 21 21 21 17 15 17 17 15 14 13 13 12 11 10 8 7 6
19 19 18 18 19 21 21 21 21 22 22 23 23 26 26 26 28 29 30 31 32 31 30 29 28 26 24 23 22 21 17 17 19 16 14 13 14 13 12 11 9 8 8
22 22 21 21 22 23 23 23 25 25 25 26 28 29 28 29 29 28 27 27 29 33 33 31 30 29 27 25 24 21 20 17 17 18 14 12 11 12 11 10 9 9 9
24 25 24 25 26 26 26 25 26 27 29 29 30 29 15 17 20 20 22 22 22 25 29 31 32 31 30 30 29 28 25 20 17 13 13 14 18 15 10 10 9 10 10
28 27 27 27 27 27 28 29 30 31 31 34 33 33 33 34 30 24 25 24 31 29 29 27 28 33 35 36 35 35 33 33 35 35 34 38 24 20 26 25 20 14 13
28 28 28 27 26 27 28 28 28 31 32 34 36 35 32 34 34 37 32 27 28 29 33 31 30 31 33 35 38 39 36 33 33 35 31 37 33 34 24 25 27 32 32
28 27 27 25 21 20 20 20 20 22 20 25 25 25 26 24 27 25 28 32 32 34 31 31 33 32 34 35 35 32 33 34 34 33 29 25 27 29 26 26 22 23 22
28 26 26 25 21 23 21 22 18 20 19 18 20 24 25 25 24 23 25 28 29 30 29 27 29 30 31 29 33 30 29 34 30 32 24 20 23 23 19 20 23 20 18
28 28 26 27 25 25 23 20 20 23 23 21 21 22 23 24 24 25 25 26 29 29 28 28 26 25 25 26 23 23 26 26 26 25 24 21 20 25 27 24 21 23 25
20 20 21 23 24 24 21 20 20 22 22 24 24 22 21 22 25 23 23 24 23 24 24 22 19 21 21 19 20 20 19 22 23 23 26 23 22 24 24 26 25 25 20
15 17 18 20 20 20 20 21 22 24 22 21 21 20 22 22 22 20 20 21 21 22 20 18 21 19 18 16 18 20 18 21 24 24 24 21 21 21 23 21 19 18 18
15 16 18 20 21 22 22 22 22 22 20 18 17 16 16 17 14 14 14 16 18 19 18 19 19 17 16 13 16 19 21 22 22 21 19 19 19 19 18 17 17 18 18
15 16 16 16 16 16 16 16 16 15 14 14 13 11 12 11 11 12 13 13 14 13 14 14 14 14 12 12 13 14 16 16 15 16 17 16 17 17 18 18 19 17 15
12 13 14 14 13 13 13 13 13 13 11 8 7 8 8 7 8 10 9 8 8 8 8 9 10 9 9 10 11 12 13 12 12 13 13 14 14 17 17 16 16 15 15
10 10 11 12 11 11 10 10 9 8 6 5 7 7 6 5 4 3 3 4 6 7 7 7 7 7 8 9 9 9 9 11 13 13 14 15 16 14 13 13 15 15 16
10 11 10 9 8 8 7 6 6 5 5 5 4 3 2 2 2 2 3 5 6 7 8 8 7 7 7 7 8 10 12 12 13 14 15 14 12 13 13 14 15 16 16
7 7 6 6 6 6 7 6 6 6 6 5 3 1 0 1 2 3 5 6 7 7 8 8 8 7 8 9 10 11 11 13 12 10 10 9 14 13 14 15 16 17 18
7 7 7 8 9 10 10 9 9 7 5 4 2 1 2 4 5 6 6 6 7 8 7 7 8 9 10 11 12 13 13 12 10 10 13 10 11 12 14 16 19 20 19
8 10 11 11 11 12 11 9 7 5 3 2 2 3 4 5 7 7 8 8 9 9 10 10 9 9 10 11 11 12 10 10 10 11 13 14 12 13 15 18 20 17 12
12 13 13 12 10 10 9 7 4 2 2 2 4 5 6 8 9 8 9 9 9 9 10 11 10 9 9 9 7 9 8 11 12 10 13 17 13 19 18 12 9 5 9
13 13 13 11 8 6 4 3 1 2 3 4 5 6 7 8 9 9 9 8 8 9 9 9 9 8 7 7 8 9 11 12 14 13 10 14 18 18 12 5 3 16 17

GFSMA_850_spd_084.txt.gz
Wind_Speed
8 9 9 8 8 8 8 7 8 8 8 9 10 11 11 12 12 12 11 11 12 13 15 16 17 16 15 14 13 11 8 7 6 6 5 5 4 5 4 3 3 3 3
8 10 9 8 8 8 8 9 9 9 9 10 11 12 12 12 13 14 14 13 13 14 15 17 18 18 16 15 15 13 10 9 8 7 7 7 7 7 6 4 4 4 3
9 9 10 9 6 7 7 8 8 9 9 10 9 12 13 13 14 15 15 15 15 15 16 17 19 19 18 16 15 15 12 11 11 9 9 9 8 8 8 7 6 6 5
10 10 10 9 7 7 8 8 8 9 9 10 10 10 12 15 16 16 16 16 17 17 18 18 18 19 19 18 16 13 15 13 13 12 11 10 9 9 10 10 8 7 5
11 12 11 9 9 10 10 10 11 12 12 11 12 13 14 16 16 18 18 18 18 19 20 20 19 20 20 19 18 14 14 17 15 13 11 11 10 9 9 9 8 6 4
13 14 13 12 12 14 14 14 14 15 17 16 16 18 18 18 20 20 21 21 22 23 23 23 22 21 21 21 20 17 12 16 18 19 15 11 11 10 10 9 7 5 4
17 16 15 15 15 17 16 16 17 18 20 20 21 23 23 22 23 23 24 24 23 23 24 24 24 23 22 21 22 20 17 16 18 21 20 17 11 10 9 9 9 8 7
20 18 18 17 17 18 19 19 20 21 22 22 23 25 26 26 24 22 19 15 16 18 20 21 23 23 24 24 24 23 22 21 23 27 28 30 25 29 21 14 9 7 8
23 22 21 20 22 22 23 23 23 24 25 25 25 25 13 15 20 24 23 26 25 20 15 16 17 19 22 24 26 27 29 31 30 26 27 28 33 26 27 30 29 26 14
27 26 24 23 23 23 24 24 25 26 27 28 28 29 30 32 28 21 23 24 24 24 26 20 20 23 26 25 26 28 29 31 32 25 28 22 20 28 27 26 23 28 32
25 27 28 28 28 26 25 25 26 26 25 26 26 25 29 30 27 26 26 24 23 21 21 25 24 25 22 24 25 27 26 26 28 31 29 32 28 28 27 25 22 20 23
28 27 26 26 26 25 23 21 21 20 20 19 19 20 20 20 20 20 23 25 24 25 23 20 22 22 21 21 24 23 22 22 22 28 31 32 28 19 20 20 21 20 18
27 27 26 26 25 24 21 20 19 19 18 18 18 18 17 19 22 22 23 26 27 26 20 21 21 21 21 18 17 17 17 16 19 27 26 22 16 13 17 18 16 15 18
23 24 24 23 23 24 24 22 21 21 20 19 22 22 21 21 22 23 24 23 24 22 23 21 20 19 19 18 16 15 15 12 16 16 16 19 20 17 21 24 23 29 24
22 24 24 24 24 25 26 23 22 20 19 21 23 24 22 22 23 23 21 21 23 16 15 19 18 19 19 16 17 16 14 13 16 18 20 20 22 22 23 27 29 29 27
12 12 12 14 16 18 20 21 22 21 22 25 24 20 20 21 23 22 23 20 20 17 19 18 17 18 17 16 14 14 15 14 15 17 19 21 22 22 21 21 20 19 18
14 14 14 15 16 16 17 20 20 22 24 23 20 19 19 19 18 16 15 14 13 13 15 16 17 15 13 11 11 14 15 15 17 17 20 19 18 18 18 18 16 16 16
15 16 16 17 18 18 19 21 21 21 20 18 16 15 15 14 12 9 9 11 13 12 13 14 13 11 9 9 10 12 14 15 13 13 14 14 16 18 18 17 16 16 16
14 14 15 15 15 15 15 15 15 15 14 13 12 10 10 8 7 7 8 7 7 8 9 9 9 9 8 8 8 10 11 13 12 13 13 13 13 14 15 16 15 14 11
10 10 10 11 11 11 12 12 12 11 10 9 7 7 4 3 5 5 4 4 5 6 6 6 7 7 7 7 9 9 9 10 11 11 13 15 16 16 15 12 12 12 12
11 11 10 11 11 11 10 10 10 9 8 7 7 5 4 5 6 5 3 4 5 6 7 6 6 6 7 7 8 8 9 10 11 13 14 16 14 12 12 13 13 13 13
10 10 10 10 10 10 10 8 7 8 8 7 5 4 4 3 3 2 2 4 5 6 7 7 7 7 7 8 9 10 11 12 11 12 11 8 13 12 13 14 15 14 14
10 9 8 8 8 8 9 9 10 8 7 6 4 3 2 2 2 3 4 5 6 7 7 7 7 8 9 10 10 11 11 12 10 10 12 9 10 11 13 15 16 17 19
9 9 9 10 10 11 11 10 9 7 5 4 2 1 1 3 3 4 6 7 8 8 8 8 8 8 9 9 10 11 10 9 8 9 11 12 11 13 12 16 19 18 15
10 12 12 12 11 11 10 7 6 4 3 1 1 2 3 4 6 5 7 7 7 7 8 9 9 8 7 8 9 7 5 7 8 9 13 14 12 15 15 14 10 5 4
13 13 14 14 12 9 7 5 3 2 1 2 2 3 4 5 6 6 6 6 6 6 6 7 7 7 6 6 6 7 8 9 11 10 9 13 16 17 11 9 5 6 14

GFSMA_850_spd_087.txt.gz
Wind_Speed
8 9 9 8 7 7 7 6 6 8 8 8 9 9 8 8 8 8 8 9 9 9 11 12 13 13 14 13 12 11 10 8 7 6 5 5 4 4 4 4 3 2 2
8 9 10 9 7 7 7 8 8 7 8 8 9 9 9 9 9 10 10 10 10 10 11 12 14 14 14 14 14 13 10 10 9 8 6 6 6 6 6 5 5 5 3
10 8 10 9 7 7 8 8 7 7 7 7 6 8 8 10 11 10 11 11 11 11 11 11 13 15 14 14 14 15 13 11 10 10 9 7 6 7 8 8 7 6 5
10 9 9 9 9 8 8 8 7 7 6 6 6 7 8 10 11 12 13 13 12 12 12 12 12 14 15 15 14 10 14 16 13 12 12 11 8 6 7 8 8 7 5
10 10 9 8 10 11 9 9 9 9 9 9 10 10 10 11 13 13 14 14 15 15 15 14 14 14 14 15 14 12 14 17 19 17 12 11 12 11 8 7 7 6 4
11 12 11 11 12 13 13 12 11 11 12 12 14 15 15 15 15 16 16 17 17 17 17 16 17 17 16 16 16 15 13 16 20 20 17 14 11 14 19 15 9 6 5
15 15 13 13 14 16 14 14 15 15 16 15 17 19 19 18 18 18 18 16 14 11 13 14 15 17 17 17 18 17 16 15 18 21 20 21 19 17 18 21 22 18 14
19 19 17 17 17 18 17 17 17 17 17 17 18 20 21 22 23 17 17 20 17 19 19 16 14 14 14 16 18 19 19 19 21 22 22 25 28 23 18 20 21 24 21
20 21 21 21 20 21 22 19 20 20 20 20 21 19 12 11 16 18 20 22 20 20 17 14 19 15 13 16 19 21 21 22 24 26 29 31 29 26 25 23 21 20 15
22 23 23 23 23 22 22 21 19 20 22 24 23 24 27 27 21 17 18 17 23 19 18 16 15 15 19 19 20 17 20 21 25 27 24 21 22 21 21 23 22 16 16
21 21 22 24 24 24 24 22 23 23 24 24 23 23 24 25 21 24 21 16 16 17 17 20 19 18 19 19 17 15 17 18 19 18 22 23 27 26 23 20 23 18 15
25 25 23 24 23 24 24 23 22 22 22 22 20 19 18 17 17 16 18 21 19 18 19 18 20 19 16 17 17 16 15 13 13 13 16 17 22 25 22 17 17 16 14
26 26 26 26 26 25 24 24 23 22 20 20 18 17 15 16 17 18 19 20 17 20 18 18 17 16 14 16 16 14 14 13 12 10 12 16 19 17 17 12 18 14 13
26 26 26 26 25 24 24 25 24 22 20 19 20 18 17 19 21 21 22 17 20 20 18 17 18 15 15 16 15 13 14 15 12 12 17 21 22 21 23 24 27 25 27
23 25 26 26 26 26 24 23 24 23 22 19 17 17 19 24 23 20 20 18 18 14 15 14 13 12 14 13 15 15 13 12 13 16 18 19 23 24 24 23 22 25 27
13 14 15 14 15 14 15 17 18 19 18 19 21 23 25 23 20 19 19 19 17 14 14 14 12 12 12 13 14 14 13 10 10 14 17 19 20 21 19 18 17 18 17
14 15 14 13 11 12 14 16 18 17 18 20 23 26 21 19 18 17 16 15 14 14 11 12 11 11 12 13 12 12 11 10 12 14 16 17 18 15 15 16 15 16 17
16 16 16 16 16 16 17 17 18 21 22 24 23 21 17 16 15 15 14 14 14 12 11 11 10 10 10 10 10 9 9 10 10 12 13 13 14 14 15 16 15 15 14
14 15 15 15 15 16 16 18 18 18 18 17 17 16 14 13 12 11 11 8 6 6 7 7 7 7 7 6 6 7 9 11 12 11 12 14 13 12 12 12 14 14 12
12 12 12 12 12 13 13 14 14 14 15 15 14 12 10 8 7 6 4 4 4 5 5 5 6 6 6 6 7 8 9 9 11 12 13 14 14 14 15 13 9 8 8
11 11 11 11 11 12 12 12 12 12 11 10 9 8 7 7 6 5 4 5 5 6 6 5 4 5 6 7 7 8 9 9 11 12 13 15 14 13 11 9 9 9 9
11 11 12 11 12 12 12 11 10 9 9 9 8 7 6 5 3 4 5 5 5 5 5 4 5 6 6 7 8 9 10 10 10 12 11 9 10 9 9 9 10 10 10
11 11 9 9 10 9 9 9 9 9 9 9 8 7 5 4 4 5 5 4 4 5 5 5 5 6 7 8 9 9 9 9 9 10 9 7 7 8 9 11 12 12 14
11 11 10 9 9 9 11 11 11 10 9 8 7 5 5 4 5 4 4 5 5 5 5 5 5 5 6 6 7 7 8 7 6 7 7 7 7 8 9 12 13 15 15
11 11 10 10 10 12 12 11 10 9 8 7 5 5 5 4 4 4 3 4 4 5 4 4 4 4 5 5 4 4 4 5 6 8 10 8 9 11 12 11 10 10 4
11 12 12 13 13 12 11 9 9 8 6 5 5 4 3 3 3 2 2 2 2 3 2 3 3 3 3 4 4 4 5 7 9 8 7 11 14 13 8 8 5 7 10

GFSMA_850_spd_090.txt.gz
Wind_Speed
11 11 11 10 9 9 8 8 8 7 7 7 6 6 6 6 5 6 6 7 8 7 8 9 10 10 10 10 10 9 8 7 6 6 6 6 5 5 4 4 3 3 3
11 11 12 11 11 10 10 9 9 8 8 8 8 7 7 7 7 7 7 8 8 8 8 9 10 11 11 11 11 10 10 9 8 8 7 7 7 7 7 7 6 5 4
13 11 12 12 11 10 10 10 9 9 8 7 7 6 7 7 8 8 9 9 10 9 8 9 9 11 12 11 11 13 12 10 10 10 9 9 9 10 11 11 10 8 6
13 13 11 12 12 11 10 9 9 8 7 6 6 6 7 9 9 10 11 10 10 11 11 10 10 11 12 13 11 11 15 14 14 13 11 9 8 8 9 11 14 15 12
13 13 11 11 13 13 12 10 10 9 8 8 8 8 10 11 11 12 11 12 12 13 13 14 12 13 14 14 14 11 14 18 16 15 14 13 10 10 12 15 19 17 17
13 13 12 12 13 13 13 13 11 11 11 11 12 13 14 14 15 14 12 12 12 12 13 11 13 14 14 15 16 14 13 16 20 20 18 16 15 13 15 16 15 17 16
15 15 14 14 15 16 15 15 15 15 15 14 14 15 15 15 16 16 14 12 11 15 13 15 15 15 15 14 16 16 15 15 17 25 21 20 19 19 17 17 13 14 18
17 17 18 17 18 18 18 18 18 18 18 18 14 11 10 10 12 12 13 13 14 16 15 18 16 14 14 16 15 16 18 17 19 19 23 23 20 21 24 18 17 17 19
21 21 22 21 21 21 21 21 22 21 20 21 19 15 9 9 12 13 16 18 18 16 16 19 15 17 17 16 15 17 19 19 19 20 22 25 26 20 20 22 19 21 19
21 21 21 21 22 23 23 23 23 21 21 22 23 23 22 22 19 14 14 16 19 18 20 16 15 16 15 16 16 17 18 18 17 19 19 25 23 16 18 15 18 17 18
19 19 20 21 22 22 22 23 23 22 23 23 24 23 22 23 23 22 20 17 16 15 14 16 17 18 15 14 14 14 17 17 16 15 17 20 23 22 18 14 15 19 15
21 21 21 22 21 22 23 23 24 25 24 24 24 23 22 20 18 16 19 18 15 17 17 18 18 19 17 15 14 14 17 16 15 14 14 12 16 20 17 14 16 12 14
23 24 25 26 26 25 25 25 26 26 25 24 23 20 19 18 16 15 18 16 18 17 18 17 17 18 17 16 13 14 15 13 12 12 13 17 18 19 18 20 20 21 21
26 26 27 27 27 27 27 27 27 26 24 24 22 21 20 22 19 17 21 20 17 18 18 19 16 17 15 14 12 13 14 12 14 14 17 18 18 22 23 21 20 22 26
26 25 25 25 25 25 25 25 25 23 23 24 22 22 22 20 21 21 23 20 17 12 10 15 15 14 14 14 11 11 13 14 13 15 18 20 21 22 23 22 25 28 26
16 17 19 21 22 24 25 26 26 25 24 23 22 21 21 21 23 23 20 18 18 18 17 15 15 15 14 10 10 11 13 13 12 11 13 16 19 21 21 25 25 23 19
16 16 16 16 16 15 13 14 15 16 18 20 22 22 21 23 24 20 19 17 16 15 15 16 13 13 11 11 12 13 13 12 12 12 13 15 18 21 22 19 16 16 15
18 18 18 18 17 16 15 16 17 17 20 20 22 22 25 23 20 17 15 14 14 14 13 13 12 11 11 12 12 12 11 11 11 12 14 14 15 16 16 15 16 16 15
18 19 18 18 18 18 19 20 22 21 22 23 23 23 20 19 17 14 12 11 10 9 9 10 10 10 9 9 7 7 8 10 12 12 11 13 14 15 15 14 14 14 14
16 16 17 17 17 17 18 19 20 21 21 20 20 19 17 15 11 9 8 7 6 7 6 7 8 8 8 8 7 8 9 10 11 11 12 13 13 14 14 14 12 11 10
14 14 14 14 14 14 16 16 16 17 18 17 16 14 12 10 9 8 8 7 7 7 7 8 8 8 7 7 7 8 8 9 12 12 13 15 13 14 13 11 9 9 10
15 15 14 14 14 14 15 15 15 14 13 12 12 11 11 9 9 10 10 8 8 7 8 8 7 7 8 7 8 9 9 9 5 11 10 10 12 10 9 9 9 10 11
15 15 14 14 14 14 14 15 14 12 11 12 12 10 10 9 8 8 7 6 6 7 8 7 7 8 7 7 8 7 8 8 8 10 8 6 6 7 9 10 11 12 13
14 15 14 12 12 11 12 13 12 12 12 12 12 11 9 8 7 7 6 6 6 7 6 6 6 6 6 5 5 5 5 5 4 5 4 5 7 8 10 12 13 14 15
13 13 12 11 11 11 12 13 12 12 12 12 10 9 8 7 7 7 7 6 6 5 4 4 4 4 4 3 4 3 2 2 3 6 7 6 8 11 11 12 13 13 11
12 11 11 11 12 12 13 12 12 11 11 10 10 9 9 8 7 7 6 5 5 4 4 3 3 3 3 3 3 3 4 4 5 5 5 9 11 12 7 10 10 8 9

GFSMA_850_spd_093.txt.gz
Wind_Speed
10 11 11 9 7 6 4 4 6 6 5 5 5 4 5 4 5 4 4 7 7 7 7 8 7 8 9 8 8 8 8 8 8 7 8 8 8 8 10 10 11 10 9
10 11 11 11 10 10 8 8 6 6 7 6 6 6 5 5 5 5 4 8 8 8 8 8 8 9 9 10 10 8 8 8 8 8 8 8 8 8 9 9 10 11 12
11 11 10 11 10 8 8 8 9 10 7 8 7 6 7 6 7 6 6 5 9 9 9 9 9 9 11 11 12 14 11 10 10 10 10 9 9 9 10 11 12 12 12
12 12 11 11 10 10 10 9 8 7 8 7 6 6 7 7 6 6 8 9 9 9 13 11 10 11 11 12 11 12 14 11 10 10 10 9 10 9 9 11 11 12 11
12 12 11 9 11 12 11 10 9 9 7 8 8 8 8 9 9 9 10 9 10 11 11 13 13 13 13 13 12 11 12 17 17 14 12 11 9 9 8 11 14 12 11
13 13 11 10 11 12 12 12 10 11 10 8 9 11 11 12 13 13 10 9 9 11 10 9 11 12 12 13 14 13 12 13 18 19 16 16 13 9 10 12 14 10 10
12 13 12 11 13 13 12 12 12 14 14 12 13 14 13 13 14 13 12 9 9 13 12 12 12 13 12 13 12 13 13 13 16 17 20 18 17 14 13 14 15 11 12
16 15 15 15 15 15 16 16 16 16 16 14 12 8 9 8 12 11 9 12 11 12 15 15 14 14 13 10 15 16 15 15 16 18 19 24 17 17 16 15 13 12 14
18 20 19 18 19 19 19 19 20 20 19 17 18 13 6 7 8 11 14 13 15 18 17 17 17 16 15 15 13 12 15 17 18 19 19 22 22 18 19 15 12 12 12
18 22 22 24 23 23 24 24 23 22 22 23 23 21 21 19 12 12 14 14 17 18 21 19 16 14 14 14 15 16 15 16 17 17 18 17 23 24 20 13 10 9 12
21 18 21 24 28 24 24 24 25 24 24 22 22 22 21 19 20 21 23 20 20 18 15 15 16 16 15 14 16 15 15 13 15 16 17 16 14 25 21 12 15 12 15
28 26 24 25 29 26 24 24 25 26 25 25 24 22 24 21 17 20 20 18 16 17 18 19 18 17 17 17 17 15 14 14 15 15 15 15 16 11 18 16 10 8 13
27 26 29 31 27 26 26 26 26 26 26 25 25 24 24 20 17 18 14 14 13 15 18 18 20 20 20 19 17 14 14 12 13 12 8 13 16 12 13 14 12 18 17
30 29 27 27 27 28 28 27 27 26 26 25 24 24 24 21 18 19 20 14 17 19 19 20 21 22 18 17 14 13 14 12 12 14 15 18 17 15 14 18 21 21 20
27 27 27 28 29 28 28 27 26 26 25 23 23 25 23 20 21 21 20 20 20 18 17 20 18 17 16 14 14 14 12 11 12 13 15 16 16 17 18 20 23 23 25
23 23 22 22 23 23 24 25 25 24 20 20 22 24 27 20 21 19 20 22 22 21 17 17 19 18 17 17 14 13 12 11 12 14 14 14 18 20 20 22 21 21 24
18 18 17 17 18 18 17 17 17 18 19 21 22 27 28 20 22 22 22 23 20 20 20 20 21 17 16 13 13 10 11 11 13 12 13 13 14 16 17 18 20 18 16
19 19 19 19 19 19 18 16 16 14 16 17 20 22 24 21 23 23 21 17 15 15 17 18 17 14 13 11 11 11 10 11 12 11 13 13 15 15 15 16 16 16 17
18 19 19 20 20 19 19 18 17 18 19 18 19 21 22 23 23 19 16 14 13 14 15 14 13 12 12 10 8 7 8 9 10 12 13 13 12 13 13 15 15 15 16
17 18 18 18 18 18 19 18 19 21 22 21 21 20 21 20 18 15 13 12 11 11 10 8 9 9 9 8 7 8 8 10 11 10 12 12 12 12 13 13 13 14 13
15 16 16 17 16 17 17 17 18 19 19 19 19 19 19 17 15 13 12 10 8 9 9 9 8 9 9 8 8 7 9 10 12 10 12 13 11 12 12 10 10 9 8
15 15 16 17 16 16 15 15 16 16 17 18 17 17 15 14 13 12 12 10 9 10 10 9 9 8 10 10 8 9 9 9 7 9 8 9 10 9 8 8 7 8 9
17 18 17 16 16 16 15 16 17 16 15 15 13 12 12 12 12 11 10 10 10 11 10 10 10 11 10 10 8 8 8 8 7 10 7 5 5 5 7 9 9 11 12
16 17 16 16 15 14 14 13 14 15 15 14 13 13 12 11 11 11 10 9 9 9 9 10 11 10 10 8 7 7 7 5 4 5 4 4 7 7 9 11 13 13 14
15 14 14 14 12 12 11 11 11 12 12 13 14 13 12 11 11 11 9 9 9 8 8 9 8 8 7 7 6 6 5 4 3 5 6 8 9 8 10 12 14 12 13
13 12 13 12 11 11 11 11 12 13 13 14 14 12 12 11 10 9 9 9 8 7 7 7 6 5 5 5 5 5 4 4 5 6 8 9 10 11 6 10 8 7 9

GFSMA_850_spd_096.txt.gz
Wind_Speed
9 8 6 4 2 1 0 3 6 8 5 2 3 4 6 6 5 6 7 6 7 8 9 9 8 8 9 9 10 10 9 9 9 9 9 9 9 9 9 10 10 11 11
10 11 11 6 2 4 3 4 8 8 7 5 5 6 5 4 5 5 7 7 7 8 9 9 10 10 10 10 10 10 8 8 8 8 9 9 9 9 9 9 9 9 10
16 17 16 17 16 17 14 12 10 10 8 7 8 7 7 5 7 6 5 7 8 9 8 9 9 10 12 11 13 11 9 8 7 7 8 8 8 8 8 9 10 11 11
16 16 17 16 14 14 13 13 11 9 8 7 6 4 8 8 7 7 6 9 9 10 10 10 9 11 11 12 12 12 13 10 8 8 7 7 7 6 5 9 10 10 10
13 14 15 15 14 14 14 12 10 9 7 8 9 9 10 9 8 8 9 10 10 11 10 10 11 11 11 12 12 12 12 16 14 13 11 6 6 5 6 8 11 10 8
13 13 12 11 12 15 14 12 11 10 11 11 9 11 10 11 11 12 12 10 8 12 13 11 11 9 10 11 12 13 13 13 14 16 15 14 12 8 5 5 8 8 8
14 14 14 12 12 13 12 10 11 13 12 11 13 14 13 12 11 11 10 9 6 12 16 12 13 11 12 15 13 12 12 13 13 14 16 16 16 14 8 7 9 8 8
16 13 13 14 14 14 13 12 14 14 14 14 13 10 9 12 9 9 7 9 13 16 16 15 14 13 13 13 13 13 15 16 17 16 16 17 18 18 11 10 11 8 7
16 17 16 15 16 17 17 15 17 19 17 15 16 14 6 6 4 7 13 14 15 16 17 15 15 14 16 16 14 14 14 14 16 18 19 18 19 17 19 12 11 7 5
11 15 17 16 16 16 18 20 22 23 21 20 19 21 20 19 10 7 12 15 13 17 17 19 18 14 12 14 15 14 15 15 16 17 16 17 15 22 23 17 11 8 4
7 8 9 10 13 14 15 18 22 24 27 23 22 22 22 20 22 24 17 16 15 16 16 13 14 15 15 16 17 17 16 16 16 16 17 19 18 13 23 18 10 17 10
9 9 11 15 14 16 17 18 27 32 28 25 24 23 24 23 22 19 19 19 18 18 18 17 15 17 17 17 16 16 14 14 14 15 12 11 10 11 9 14 14 14 7
16 15 12 18 22 22 19 23 29 32 26 25 25 25 26 26 25 20 18 13 13 15 15 17 21 19 20 18 17 15 14 14 11 6 7 9 9 3 4 13 11 13 14
19 10 10 14 28 32 28 30 31 28 26 25 25 26 27 27 23 22 20 16 15 14 15 19 21 23 21 18 16 14 13 11 10 10 10 12 11 11 13 15 14 17 19
24 28 29 27 28 29 29 29 29 29 26 26 26 25 25 25 23 23 20 19 18 17 15 20 22 22 18 16 15 15 13 10 10 11 10 12 12 12 13 16 18 18 20
21 21 22 24 24 23 22 22 23 24 24 24 24 24 23 27 23 20 21 21 19 19 19 19 22 19 17 18 16 14 13 11 12 12 13 14 12 13 16 19 19 21 20
19 19 17 17 17 16 16 16 17 19 23 22 21 22 24 24 24 20 22 21 20 22 21 21 21 20 19 17 13 9 11 12 11 12 11 11 11 10 13 13 15 17 17
17 17 18 19 19 18 19 18 17 15 14 17 20 22 24 27 22 20 22 21 23 21 19 19 20 18 17 14 11 9 12 13 10 10 10 10 11 12 13 13 14 15 16
16 17 19 19 20 19 19 19 18 17 16 16 18 19 20 23 20 20 24 20 18 16 16 16 17 16 13 13 10 9 10 8 7 8 10 10 11 11 12 12 13 14 15
14 16 17 17 17 17 19 19 20 20 19 19 19 20 20 22 21 22 20 17 15 15 15 14 13 12 12 11 10 9 10 8 7 9 9 9 11 11 11 12 13 13 13
12 14 15 16 17 17 16 17 19 20 20 20 20 21 21 21 20 19 16 15 14 13 13 12 11 10 10 11 11 10 11 10 9 10 10 10 10 9 10 10 9 7 7
12 14 15 16 17 17 17 16 18 18 18 19 18 18 20 19 18 17 14 13 12 13 13 12 11 11 11 11 11 11 11 11 10 9 7 7 7 6 5 4 3 4 6
12 13 15 17 18 18 17 18 18 18 18 17 17 17 15 13 13 12 13 14 14 15 14 13 12 12 11 11 10 11 10 10 12 6 6 5 4 4 4 5 5 7 9
14 14 15 17 18 17 17 17 16 17 17 16 15 14 13 13 12 13 12 13 13 12 13 12 12 11 10 10 10 10 10 9 8 6 5 5 5 5 7 9 9 10 11
16 17 16 14 16 15 15 13 12 13 14 14 13 13 13 13 13 13 12 12 12 12 12 11 10 11 10 10 10 9 9 8 8 6 5 7 7 6 9 11 12 10 10
17 17 15 12 13 14 12 10 11 13 14 14 15 13 13 12 12 12 12 13 11 11 10 10 9 9 9 9 8 8 7 8 7 6 6 7 7 8 6 8 7 6 10

GFSMA_850_spd_099.txt.gz
Wind_Speed
10 11 9 6 5 6 8 8 6 5 2 5 4 4 4 5 6 6 5 4 5 7 8 7 8 8 8 8 9 9 8 8 7 7 7 7 7 7 8 8 9 10 11
9 12 10 7 6 6 5 5 4 4 5 5 5 4 3 5 6 6 5 5 5 6 7 8 9 9 9 8 7 7 7 6 6 7 8 8 7 7 8 8 9 9 9
12 10 8 9 9 8 7 7 8 10 10 9 8 7 6 4 5 4 5 5 5 6 6 7 8 10 11 10 10 8 6 5 4 4 5 6 6 5 6 8 9 9 8
17 17 17 14 13 13 13 15 14 12 12 12 10 9 8 6 6 7 7 6 7 7 7 8 7 8 9 9 10 11 12 9 8 5 4 4 4 3 4 6 7 8 8
19 20 20 21 19 18 17 16 15 13 12 11 10 9 9 8 8 8 8 8 10 10 8 9 9 9 9 9 9 11 12 13 11 10 9 4 4 4 2 3 5 6 7
15 17 19 20 18 17 16 15 14 13 12 11 10 11 11 10 11 10 10 10 10 9 10 12 12 11 11 10 11 11 11 11 12 12 12 10 8 8 6 4 4 4 6
14 13 14 17 16 15 13 13 14 14 13 12 13 13 13 13 12 10 10 10 9 9 12 15 15 14 12 12 12 11 11 11 12 14 13 14 12 13 11 6 4 4 6
18 17 12 15 15 14 13 12 12 13 13 14 14 12 12 11 11 10 10 10 11 13 15 16 16 15 13 15 14 12 13 15 16 16 16 14 16 17 15 12 8 6 7
20 18 16 12 15 17 15 12 11 14 16 15 16 14 7 7 4 7 12 14 14 14 15 17 18 16 17 16 14 13 14 14 15 16 17 18 18 18 20 15 13 10 8
21 20 21 18 19 18 16 16 14 16 20 20 18 21 23 20 9 6 12 16 16 17 17 17 17 17 15 13 14 15 14 15 16 16 17 19 18 17 20 20 17 15 11
12 11 9 16 19 17 12 13 15 16 18 16 15 20 27 25 21 20 15 17 19 19 17 18 16 13 14 15 15 16 15 14 15 14 15 18 18 19 15 19 22 20 14
9 13 9 10 10 12 11 13 16 18 21 19 23 23 27 26 23 23 22 21 17 18 19 20 17 14 15 15 16 15 15 12 12 11 11 6 6 9 10 12 19 21 19
18 15 14 15 14 16 15 13 15 18 26 23 28 27 29 28 26 23 20 19 18 19 18 20 17 16 16 16 18 16 13 11 10 6 7 8 7 3 2 9 11 11 11
18 26 23 22 24 31 32 31 20 21 31 30 31 28 28 28 27 26 25 21 21 19 18 19 21 20 19 19 16 14 12 9 10 11 11 9 7 7 9 9 10 11 12
21 23 21 23 21 21 24 28 28 29 30 30 30 28 29 28 27 26 24 24 26 17 19 21 21 23 19 18 15 15 13 11 11 11 10 8 8 10 12 13 16 18 19
26 25 26 28 28 29 27 27 28 28 27 27 25 24 26 27 27 24 23 24 24 27 19 20 22 23 19 17 19 17 16 14 12 11 11 11 12 12 12 14 16 18 19
24 23 23 23 22 22 22 22 23 22 22 21 21 22 23 25 25 21 19 24 21 22 24 23 23 21 19 17 19 14 12 11 11 11 10 10 11 12 12 13 14 15 16
17 17 18 18 19 19 20 20 20 21 20 19 17 18 19 24 20 21 18 21 21 21 23 24 22 20 19 17 15 12 11 11 10 11 11 10 10 11 12 13 13 14 14
19 18 18 17 18 18 19 20 20 20 19 18 17 16 19 20 21 20 22 21 21 23 22 21 20 20 18 16 14 13 11 9 9 8 8 8 9 10 11 12 12 13 12
15 14 14 15 17 17 17 18 19 20 19 17 17 17 20 20 20 21 19 21 22 21 20 19 18 17 17 16 15 13 12 10 10 9 8 8 9 11 12 11 12 13 13
12 12 12 13 14 15 16 18 18 18 20 19 19 20 21 22 22 24 24 23 20 20 19 18 18 17 16 16 15 13 13 11 10 9 8 9 9 10 10 9 9 8 8
11 11 11 12 14 15 17 19 19 19 19 19 20 20 21 22 23 23 23 21 19 18 17 17 15 14 14 14 14 13 14 12 9 8 8 7 7 8 7 6 5 5 6
12 13 14 15 15 17 20 20 21 19 19 19 19 18 19 19 20 19 19 19 19 17 16 14 13 13 14 13 12 13 13 12 10 9 7 7 7 6 6 5 5 6 7
14 14 16 17 17 17 18 20 20 19 18 19 18 18 18 16 15 15 14 15 16 16 16 15 14 12 11 12 11 11 12 12 9 9 8 7 7 6 7 7 7 7 8
15 17 17 18 19 17 16 18 16 15 15 15 15 15 14 14 16 15 14 14 15 16 15 14 14 13 11 12 11 10 10 11 9 8 8 7 7 7 8 9 10 9 7
16 17 18 18 17 16 14 16 13 11 12 13 14 14 15 15 15 14 14 14 15 14 13 12 14 10 11 11 11 9 8 8 7 7 9 7 5 5 5 7 7 6 7

GFSMA_850_spd_102.txt.gz
Wind_Speed
15 16 12 11 10 10 10 10 10 8 6 7 6 5 5 5 6 4 3 2 3 4 5 5 6 6 7 6 7 7 7 6 6 6 6 6 5 6 8 8 8 9 10
12 13 12 11 10 10 10 10 7 7 5 5 6 6 6 8 8 6 4 3 3 3 5 6 7 7 7 6 6 6 6 4 4 4 5 5 5 6 7 8 8 9 9
11 13 12 12 9 9 9 10 9 7 7 8 8 8 8 7 8 6 5 5 4 4 4 5 7 7 9 10 8 7 6 5 4 3 3 4 4 4 5 5 6 7 7
14 14 14 12 10 10 10 10 9 9 10 11 10 10 10 9 8 8 8 7 6 6 6 6 6 7 9 9 9 10 11 10 8 5 3 2 1 1 1 3 4 4 5
17 15 14 13 13 13 13 13 13 14 14 14 13 12 11 10 9 10 10 10 9 9 8 7 6 8 10 9 10 10 11 13 12 9 8 4 3 3 3 2 4 4 5
19 18 17 17 17 17 17 18 17 17 15 13 12 12 12 12 12 12 12 12 11 11 11 10 10 10 11 11 10 10 11 12 12 11 11 12 9 7 4 7 3 2 5
13 15 17 20 22 22 19 17 16 15 15 13 13 14 14 14 15 14 14 12 13 13 13 13 13 13 13 12 12 12 11 11 11 11 14 14 13 10 9 10 7 4 3
17 15 14 15 19 18 15 14 14 14 14 14 14 13 11 11 12 14 15 14 14 16 16 17 16 15 15 13 15 13 11 11 14 14 16 16 14 17 14 12 13 10 7
21 21 18 13 15 15 10 13 14 14 14 14 15 13 6 3 6 9 13 17 16 17 19 17 16 16 15 17 15 13 12 14 15 15 16 17 17 16 18 20 16 14 11
24 23 23 21 20 20 21 22 17 19 19 17 15 17 17 19 11 8 12 15 17 18 16 17 17 17 17 15 13 14 14 14 15 15 15 16 17 18 17 20 22 15 16
22 23 24 24 21 22 21 20 21 20 17 16 14 14 12 19 17 16 22 19 19 18 18 21 19 20 15 15 15 15 15 14 14 15 14 15 17 20 20 18 23 22 21
17 17 19 16 17 13 12 11 12 13 15 14 16 17 18 22 22 20 27 25 24 22 23 22 23 21 17 15 14 15 16 15 13 11 10 9 7 9 10 16 16 24 24
16 16 19 23 26 27 25 17 16 17 18 18 14 20 21 27 27 25 27 26 26 25 23 22 23 20 16 16 16 16 14 12 10 8 8 9 6 5 3 3 9 24 22
15 20 22 22 20 20 25 25 28 32 34 35 27 22 25 30 30 29 28 25 25 23 25 22 22 20 18 17 18 16 12 10 8 12 14 14 9 6 8 4 9 14 11
19 19 20 17 16 18 17 13 17 22 25 29 30 32 33 35 33 29 27 26 25 24 25 27 25 22 20 17 17 17 13 11 12 14 14 12 10 9 10 13 12 13 15
21 21 21 22 23 23 24 25 28 29 29 29 29 30 31 32 31 29 26 28 29 28 26 22 25 20 20 17 18 16 17 16 15 15 14 12 12 11 11 12 14 15 16
19 23 24 23 23 24 25 25 25 24 23 23 23 23 24 27 26 26 27 25 25 27 24 22 22 19 20 19 18 18 18 12 12 13 14 13 12 13 14 14 15 15 17
20 17 18 19 19 20 21 22 22 23 23 23 23 23 23 22 22 20 21 26 22 23 26 24 23 22 22 19 17 17 16 11 12 12 12 12 13 13 13 13 13 13 12
17 16 17 17 17 17 19 20 21 22 23 22 23 22 21 19 18 19 20 21 21 22 21 20 22 22 21 19 19 17 14 13 13 13 12 9 10 11 12 13 12 12 12
17 18 18 17 16 16 17 18 19 20 22 21 21 20 17 18 19 19 20 21 23 22 20 22 24 21 19 20 18 16 15 15 13 11 11 11 11 12 12 13 13 13 12
15 15 14 13 14 14 15 16 18 20 20 21 20 20 20 20 22 22 21 21 21 23 24 23 21 19 20 20 20 17 16 14 14 13 12 12 12 12 12 11 11 10 9
13 12 12 14 15 16 16 18 19 22 23 23 21 21 21 22 23 25 25 24 24 23 21 19 19 19 18 18 17 17 16 17 15 13 13 12 12 11 10 9 8 7 6
12 13 14 16 17 18 19 19 20 21 23 24 23 23 21 21 22 23 23 23 23 22 20 16 15 13 15 15 15 16 16 15 15 11 10 10 11 9 9 8 7 7 7
14 14 16 17 19 20 22 23 22 21 21 21 21 21 19 19 20 20 18 15 15 16 16 15 14 13 14 14 15 13 12 14 16 13 13 11 11 10 9 9 9 9 9
14 15 16 18 19 20 22 22 20 19 19 18 18 17 16 16 15 15 14 14 14 15 15 15 15 15 15 14 15 14 15 14 16 13 12 10 11 11 10 10 11 10 10
15 17 18 19 21 21 20 20 19 16 16 15 15 15 14 14 14 14 13 12 12 13 12 12 13 13 13 14 14 13 13 13 14 11 12 11 10 9 7 11 11 9 8

GFSMA_850_spd_105.txt.gz
Wind_Speed
19 18 16 14 13 12 11 10 10 9 8 8 7 6 5 4 3 3 3 3 3 4 5 6 6 6 7 7 7 7 7 7 7 6 6 6 6 6 7 8 9 10 11
16 16 14 13 12 11 11 10 9 9 7 7 7 6 6 7 7 6 5 4 4 4 5 6 6 6 8 8 8 7 5 5 5 5 5 5 4 5 6 6 7 8 9
15 14 14 11 9 10 10 12 10 9 8 7 7 8 8 8 6 6 6 6 5 4 5 6 7 7 9 11 9 8 6 5 4 4 3 3 1 2 3 4 5 5 7
14 12 14 12 10 11 11 10 10 9 9 9 8 9 10 10 10 8 8 8 7 6 5 6 6 7 9 11 10 10 12 9 7 7 4 3 2 1 1 3 4 4 6
13 12 12 12 12 13 12 11 11 11 11 11 12 13 13 12 11 11 10 10 9 9 8 6 6 7 9 11 13 11 11 12 11 11 8 7 5 4 3 1 3 2 5
13 14 13 13 14 14 14 13 12 13 13 15 14 13 13 13 13 13 12 12 12 11 9 9 9 9 11 12 13 12 13 12 12 11 11 11 10 8 5 6 5 3 2
11 14 14 14 15 16 16 15 14 14 15 14 14 14 14 14 14 15 15 15 15 14 11 12 11 13 12 14 15 13 14 13 12 11 12 14 14 13 9 11 9 7 4
11 10 11 13 16 18 20 19 18 14 10 14 15 13 11 8 9 12 16 17 17 16 16 15 17 15 14 14 16 15 16 15 14 14 13 13 13 18 16 13 12 11 11
17 17 18 18 16 17 18 19 17 17 10 14 16 14 6 4 5 9 8 11 16 17 16 18 17 16 14 14 19 18 15 14 15 17 16 15 16 16 17 18 17 15 15
21 21 23 22 22 17 17 18 20 22 19 19 19 21 21 20 11 8 10 12 14 14 16 17 15 15 17 17 21 16 16 16 15 16 16 17 17 17 18 16 20 21 17
26 26 25 27 24 21 20 21 24 31 21 22 22 17 16 15 15 15 16 15 18 17 19 22 17 17 15 23 20 16 17 16 16 15 16 15 16 17 20 22 20 25 22
25 23 24 25 24 26 24 29 23 28 27 22 14 14 16 16 17 18 18 20 27 21 24 25 21 19 20 23 18 16 15 16 15 14 12 13 10 7 9 13 17 18 29
24 19 14 14 13 15 17 19 20 19 16 20 17 19 16 20 20 17 22 27 26 27 28 27 24 23 21 20 18 16 15 15 12 8 6 9 7 5 8 10 8 13 26
9 11 12 15 16 17 19 20 18 19 24 26 22 22 27 33 24 23 24 29 31 28 27 25 24 25 23 19 19 16 15 13 11 10 14 15 14 13 11 7 9 28 29
14 13 16 18 19 19 17 18 20 18 19 20 22 26 29 29 31 32 30 29 30 27 24 25 25 24 24 20 19 16 16 14 14 14 15 17 15 11 8 8 11 10 10
13 15 16 17 18 19 19 19 21 24 26 25 26 27 28 28 30 30 29 29 27 26 26 23 24 21 22 21 17 16 18 18 18 18 17 17 13 14 12 11 11 13 13
17 16 18 19 20 20 20 22 23 23 23 23 23 24 24 24 23 22 22 22 23 23 27 24 19 21 20 20 18 17 17 18 16 15 17 16 15 15 14 13 14 15 16
19 17 17 17 16 17 17 18 20 21 22 23 23 24 24 24 22 19 21 20 24 24 24 24 22 18 21 22 17 16 16 18 14 13 12 13 13 13 14 14 14 15 15
17 16 14 14 16 17 18 18 19 19 20 21 22 22 22 24 21 19 17 16 21 20 21 22 22 23 18 19 18 18 17 16 14 14 14 14 13 13 14 14 14 13 14
15 15 14 15 15 15 15 15 16 16 17 19 21 22 22 20 18 17 19 19 19 21 19 20 21 20 20 19 20 19 18 17 16 15 13 12 12 12 13 13 13 13 13
15 14 13 12 12 13 14 14 15 17 19 20 21 22 22 21 19 19 21 20 18 17 19 19 21 23 23 23 23 21 19 17 16 14 13 13 13 13 13 13 13 14 13
12 11 11 11 12 14 15 16 17 19 21 22 23 24 24 23 21 21 23 24 24 23 24 25 25 24 22 20 20 21 19 20 18 15 15 15 14 14 13 11 12 12 10
11 11 11 13 15 16 18 20 22 22 23 23 23 24 23 22 21 21 22 22 24 24 24 24 21 19 18 17 18 20 20 17 16 13 12 16 14 13 12 11 10 9 9
10 11 13 15 16 18 21 22 24 25 23 21 21 23 22 20 19 19 20 20 19 18 18 17 18 16 15 15 15 14 13 16 17 15 14 13 12 13 12 11 10 10 11
12 13 15 16 18 19 22 25 26 23 21 19 17 19 19 17 17 16 16 15 14 13 13 13 15 15 15 14 15 16 18 19 18 16 15 14 13 14 13 12 12 13 12
13 15 17 18 20 21 23 24 23 21 20 19 16 14 15 16 15 15 14 13 12 12 12 12 14 14 14 15 16 16 15 17 17 14 15 15 12 13 10 14 14 14 13

GFSMA_850_spd_108.txt.gz
Wind_Speed
24 23 21 18 16 14 12 11 10 9 7 6 6 5 3 2 1 1 1 2 2 3 5 5 6 6 7 8 7 7 7 7 7 7 7 6 6 6 7 8 8 10 11
21 20 18 16 14 12 11 10 10 9 8 7 7 7 6 5 5 4 3 3 3 2 3 4 4 5 7 8 7 6 5 5 5 5 5 4 3 3 5 6 7 8 10
19 17 16 14 12 12 12 11 11 9 8 7 6 6 7 7 5 5 5 5 5 4 4 5 4 5 6 10 10 9 7 5 4 4 4 3 2 1 3 4 6 7 9
18 17 16 13 12 11 10 10 10 8 7 7 7 7 7 8 8 8 7 7 6 6 5 5 5 5 7 8 8 10 11 10 7 8 7 5 4 3 2 1 3 4 7
17 16 15 15 13 11 10 9 9 9 8 9 9 10 10 11 10 10 9 9 9 9 7 7 6 6 7 9 11 11 11 10 8 10 11 6 7 6 4 3 2 3 5
16 15 14 15 14 13 12 12 11 10 10 10 11 11 11 10 10 11 11 12 11 10 10 7 7 7 9 8 10 13 12 13 11 10 12 10 10 8 9 7 6 3 2
15 14 13 13 14 14 12 11 11 11 10 11 13 12 10 12 11 13 14 14 14 14 13 11 12 12 12 11 12 14 12 13 13 12 11 13 15 13 13 13 10 8 6
13 12 11 12 13 13 13 13 12 12 11 11 13 12 8 7 9 10 11 14 15 15 16 17 16 14 14 10 14 17 18 15 14 13 13 13 11 13 17 18 10 12 11
11 10 11 11 12 13 14 12 13 12 10 12 14 11 7 5 4 9 13 10 8 9 10 14 15 17 16 14 13 19 17 16 15 14 15 15 14 15 14 17 19 17 14
17 16 18 18 16 20 17 14 14 11 12 25 21 15 19 20 20 14 17 11 10 11 11 12 15 15 13 13 16 21 15 16 15 16 16 15 15 16 17 17 17 22 19
19 23 24 24 22 19 16 10 13 18 17 11 16 23 25 23 22 17 12 14 13 12 13 16 14 18 18 16 16 16 16 14 14 15 16 16 15 14 15 19 21 19 24
23 25 18 17 18 14 15 14 20 22 20 21 19 16 15 16 17 16 18 19 18 18 19 15 18 23 23 21 19 18 14 15 14 14 12 13 11 8 9 8 11 19 20
19 17 18 18 15 10 6 9 12 11 14 11 11 17 16 17 15 16 21 22 23 24 22 26 28 25 26 23 22 18 15 15 14 9 6 9 9 11 9 12 13 13 18
8 7 7 5 7 8 8 10 11 10 10 12 21 21 19 17 19 25 26 24 29 29 30 30 27 24 24 25 22 17 16 15 14 14 14 13 13 14 15 14 11 11 17
6 5 5 5 7 8 9 9 10 12 16 16 16 20 21 21 24 25 26 26 27 24 24 26 26 26 26 22 22 18 17 15 14 16 15 17 20 17 12 8 7 17 24
6 7 6 6 8 10 13 13 13 14 16 19 21 20 19 20 21 22 24 24 23 25 29 25 20 19 22 22 21 20 16 14 17 18 19 20 21 15 15 12 11 16 11
11 10 10 8 9 12 14 14 13 14 15 16 17 18 19 21 21 20 21 20 18 21 24 29 22 20 22 20 20 18 17 15 17 20 16 18 20 16 15 14 14 14 12
12 13 12 9 11 10 10 11 12 14 15 17 18 19 19 19 19 21 20 16 20 21 22 28 24 20 24 22 19 21 20 17 18 20 14 15 18 16 15 16 15 15 15
15 14 11 10 10 10 11 12 13 13 14 14 15 17 18 19 20 21 19 16 17 17 19 20 18 17 19 20 23 23 21 18 17 18 15 16 14 14 14 16 16 16 15
13 10 9 10 10 11 11 11 11 11 12 13 15 17 18 20 20 20 18 15 17 18 20 22 22 17 16 19 19 21 22 20 17 16 16 16 16 13 15 15 15 15 15
9 9 10 11 10 10 10 10 11 13 14 15 17 18 19 20 22 21 19 18 18 18 16 17 16 16 17 18 21 22 22 20 18 18 17 16 14 14 13 14 15 15 15
10 10 10 9 9 9 11 12 14 15 17 18 19 20 20 21 21 21 19 18 19 22 21 22 22 21 21 19 19 20 21 23 20 19 18 16 16 15 14 14 14 14 13
9 8 9 8 8 10 12 14 16 18 19 21 21 21 19 20 23 22 18 18 19 21 23 24 24 23 21 19 17 18 21 21 21 19 13 17 17 15 15 14 14 12 12
9 9 8 7 9 12 14 17 19 21 21 22 21 19 18 18 19 18 16 16 17 18 18 19 19 19 19 17 16 16 15 19 20 19 17 15 15 16 14 14 13 12 12
8 8 7 8 10 13 16 20 22 23 22 19 18 18 18 16 12 14 15 15 13 12 12 12 13 14 15 15 15 15 19 20 20 20 18 16 14 15 14 14 14 13 13
8 8 7 9 12 14 17 22 23 21 19 18 16 16 16 13 11 13 13 13 12 11 11 11 12 13 13 14 15 16 16 17 18 16 17 19 15 14 12 16 16 15 14

GFSMA_850_spd_111.txt.gz
Wind_Speed
29 26 24 22 20 17 15 12 10 8 6 5 4 3 3 3 3 3 2 1 2 2 3 4 4 5 7 8 6 6 6 6 6 6 6 5 5 5 7 7 8 10 13
26 24 23 21 18 16 14 12 11 10 7 6 5 5 4 4 4 4 3 2 1 1 2 3 3 3 5 7 6 5 4 4 4 4 4 4 3 3 4 5 7 9 11
24 23 21 19 17 15 14 13 11 10 8 6 5 5 5 5 5 4 5 5 4 3 2 2 2 3 4 7 9 8 7 6 5 4 5 4 3 1 2 3 5 6 10
23 21 20 18 16 15 14 12 11 10 7 5 5 6 6 6 7 7 6 6 6 5 4 3 3 2 3 5 6 8 9 8 6 7 7 6 4 4 3 2 3 4 7
23 21 19 17 16 14 12 11 10 9 6 5 5 6 8 9 9 9 10 9 9 9 8 7 5 5 4 5 7 9 11 9 7 9 8 9 7 6 6 5 3 2 3
23 20 19 19 17 14 12 11 9 7 6 6 6 7 8 8 9 10 11 12 11 10 10 9 6 8 8 8 7 11 11 10 11 10 10 11 13 8 7 9 7 5 4
22 20 17 18 17 14 11 10 9 8 7 6 7 7 7 10 12 13 14 14 14 14 13 12 14 15 14 11 11 10 11 13 13 11 10 9 11 15 11 13 11 10 8
19 17 16 15 14 13 12 11 10 9 7 5 6 8 5 6 9 11 12 13 16 16 15 14 16 17 14 14 12 14 14 14 14 13 12 11 11 11 15 17 15 12 12
21 18 15 15 14 14 12 12 12 10 8 6 10 11 6 6 9 9 13 15 16 13 13 10 12 14 14 16 14 15 15 13 14 13 13 13 13 14 15 15 18 21 17
19 17 17 16 15 12 12 13 14 11 10 15 18 16 19 20 14 10 17 17 15 9 10 14 12 11 11 15 12 15 16 12 14 14 14 14 14 14 15 16 17 18 23
14 16 17 16 16 15 7 7 11 17 17 14 13 12 15 18 19 20 9 9 12 14 12 12 11 12 13 14 17 18 17 14 12 14 15 15 15 14 14 15 19 21 20
21 21 22 20 15 16 13 13 15 14 14 19 18 15 8 10 11 10 12 13 16 18 16 16 15 14 17 19 21 23 18 16 12 14 15 14 12 10 10 10 9 12 21
25 19 17 18 15 13 9 7 9 9 7 8 9 6 10 11 13 13 13 18 21 21 21 22 20 20 23 24 23 24 20 16 14 14 11 13 11 13 13 13 13 13 14
22 19 19 16 13 11 8 7 5 5 6 7 9 12 12 13 13 15 17 19 20 21 26 24 22 21 23 23 24 25 21 18 14 14 15 16 17 15 17 18 20 15 15
17 19 18 15 10 9 8 6 5 6 7 9 11 11 15 15 16 16 18 18 18 20 20 19 21 21 22 24 24 19 21 17 17 15 16 16 19 21 18 14 10 6 12
18 18 17 12 12 10 6 5 6 7 8 10 13 14 14 14 14 15 15 17 18 17 21 21 22 21 22 21 20 21 22 20 17 15 16 17 20 22 18 14 12 13 14
14 17 12 10 8 6 4 4 4 5 7 8 10 12 13 14 14 14 15 15 16 16 22 23 23 21 13 17 20 22 21 17 20 16 17 20 19 20 19 15 15 15 14
14 13 8 8 8 5 5 5 5 7 9 10 10 11 13 13 13 14 15 15 16 13 20 22 22 22 23 15 19 21 20 20 21 19 18 21 15 17 19 15 16 16 14
13 10 10 11 9 7 8 6 7 8 9 9 9 10 12 14 15 16 17 17 16 13 16 18 19 20 20 21 21 20 22 23 20 21 16 19 14 15 15 15 18 17 16
12 11 12 11 8 7 7 6 6 8 7 9 10 11 13 15 17 18 19 18 17 16 15 19 20 21 23 24 21 22 21 21 23 21 16 16 15 15 14 15 16 17 16
12 11 11 9 8 8 7 6 6 8 8 10 12 14 16 17 19 20 20 19 19 18 16 17 18 17 17 17 18 19 21 22 21 20 18 15 16 16 15 14 15 16 16
13 12 11 10 9 7 5 6 7 9 11 13 14 15 17 18 18 18 18 20 20 18 18 20 20 20 19 19 19 18 21 23 23 22 20 18 16 17 15 15 15 17 16
13 12 12 10 7 6 6 8 8 11 13 15 15 16 17 17 17 16 17 21 16 17 18 20 21 21 21 20 19 19 20 20 21 19 14 15 18 18 16 16 16 17 15
12 11 9 7 7 8 7 8 9 12 14 16 16 16 15 16 17 17 14 11 15 16 17 19 19 20 21 20 19 17 14 17 21 20 17 17 15 18 17 17 16 15 13
11 11 10 9 7 6 7 8 12 15 17 16 14 14 15 15 15 16 12 10 11 14 13 12 12 12 13 16 17 16 17 18 20 20 19 17 16 15 16 17 16 14 14
11 11 9 7 6 5 7 10 14 17 16 15 14 12 13 14 12 11 13 10 10 11 12 11 11 11 12 13 14 15 15 17 20 18 19 19 17 13 13 17 17 16 15